Wetterdaten: Sonntag, 28.06.2020
Datum Zeit Temp. Aussen Temp. o. S. Temp +5cm Feuchte Auss Luftdruck Regen Sonnenschein Regendauer Solar Windben Empfang
28.06.2020 00:00 22,2 C 21,1 C 21,1 C 74 % 1010,2 hPa 0,0 l/m 0 min 0 min 0 W/m 6,4 km/h (2 Bft) 97,83 %
28.06.2020 00:02 22,3 C 21,1 C 21,1 C 74 % 1010,2 hPa 0,0 l/m 0 min 0 min 0 W/m 6,4 km/h (2 Bft) 95,12 %
28.06.2020 00:04 22,2 C 21,1 C 21,1 C 74 % 1010,2 hPa 0,0 l/m 0 min 0 min 0 W/m 6,4 km/h (2 Bft) 97,87 %
28.06.2020 00:08 22,2 C 21,1 C 21,1 C 74 % 1010,2 hPa 0,0 l/m 0 min 0 min 0 W/m 6,4 km/h (2 Bft) 95,88 %
28.06.2020 00:10 22,2 C 21,1 C 21,1 C 74 % 1010,2 hPa 0,0 l/m 0 min 0 min 0 W/m 3,2 km/h (1 Bft) 97,62 %
28.06.2020 00:12 22,2 C 21,1 C 21,1 C 74 % 1010,2 hPa 0,0 l/m 0 min 0 min 0 W/m 6,4 km/h (2 Bft) 100,00 %
28.06.2020 00:14 22,2 C 21,1 C 21,1 C 74 % 1010,2 hPa 0,0 l/m 0 min 0 min 0 W/m 6,4 km/h (2 Bft) 100,00 %
28.06.2020 00:16 22,2 C 21,1 C 21,1 C 74 % 1010,2 hPa 0,0 l/m 0 min 0 min 0 W/m 12,9 km/h (3 Bft) 100,00 %
28.06.2020 00:18 22,2 C 21,1 C 21,1 C 74 % 1010,2 hPa 0,0 l/m 0 min 0 min 0 W/m 6,4 km/h (2 Bft) 100,00 %
28.06.2020 00:20 22,2 C 21,1 C 21,1 C 74 % 1010,2 hPa 0,0 l/m 0 min 0 min 0 W/m 12,9 km/h (3 Bft) 100,00 %
28.06.2020 00:22 22,2 C 21,1 C 21,1 C 74 % 1010,2 hPa 0,0 l/m 0 min 0 min 0 W/m 6,4 km/h (2 Bft) 100,00 %
28.06.2020 00:24 22,2 C 21,1 C 21,1 C 74 % 1010,2 hPa 0,0 l/m 0 min 0 min 0 W/m 3,2 km/h (1 Bft) 100,00 %
28.06.2020 00:26 22,2 C 21,1 C 20,6 C 74 % 1010,2 hPa 0,0 l/m 0 min 0 min 0 W/m 12,9 km/h (3 Bft) 100,00 %
28.06.2020 00:28 22,2 C 21,1 C 21,1 C 74 % 1010,3 hPa 0,0 l/m 0 min 0 min 0 W/m 6,4 km/h (2 Bft) 100,00 %
28.06.2020 00:30 22,2 C 21,1 C 21,1 C 75 % 1010,3 hPa 0,0 l/m 0 min 0 min 0 W/m 6,4 km/h (2 Bft) 95,74 %
28.06.2020 00:32 22,2 C 21,1 C 21,1 C 75 % 1010,2 hPa 0,0 l/m 0 min 0 min 0 W/m 9,7 km/h (2 Bft) 97,87 %
28.06.2020 00:34 22,2 C 21,1 C 21,1 C 75 % 1010,2 hPa 0,0 l/m 0 min 0 min 0 W/m 3,2 km/h (1 Bft) 97,83 %
28.06.2020 00:36 22,2 C 21,1 C 21,1 C 75 % 1010,3 hPa 0,0 l/m 0 min 0 min 0 W/m 3,2 km/h (1 Bft) 97,87 %
28.06.2020 00:38 22,2 C 21,1 C 21,1 C 75 % 1010,3 hPa 0,0 l/m 0 min 0 min 0 W/m 16,1 km/h (3 Bft) 97,87 %
28.06.2020 00:40 22,2 C 21,7 C 21,1 C 74 % 1010,3 hPa 0,0 l/m 0 min 0 min 0 W/m 25,7 km/h (4 Bft) 97,87 %
28.06.2020 00:42 22,2 C 21,7 C 21,1 C 74 % 1010,3 hPa 0,0 l/m 0 min 0 min 0 W/m 19,3 km/h (3 Bft) 97,92 %
28.06.2020 00:44 22,2 C 20,6 C 21,1 C 74 % 1010,3 hPa 0,0 l/m 0 min 2 min 0 W/m 12,9 km/h (3 Bft) 95,74 %
28.06.2020 00:46 22,2 C 20,0 C 21,1 C 75 % 1010,2 hPa 0,0 l/m 0 min 2 min 0 W/m 25,7 km/h (4 Bft) 95,65 %
28.06.2020 00:48 22,2 C 20,6 C 21,1 C 75 % 1010,2 hPa 0,0 l/m 0 min 0 min 0 W/m 32,2 km/h (5 Bft) 95,74 %
28.06.2020 00:50 22,2 C 20,6 C 20,6 C 75 % 1010,2 hPa 0,0 l/m 0 min 0 min 0 W/m 12,9 km/h (3 Bft) 97,87 %
28.06.2020 00:52 22,2 C 21,1 C 20,6 C 74 % 1010,3 hPa 0,0 l/m 0 min 0 min 0 W/m 25,7 km/h (4 Bft) 97,87 %
28.06.2020 00:54 22,2 C 21,1 C 20,6 C 74 % 1010,2 hPa 0,0 l/m 0 min 0 min 0 W/m 22,5 km/h (4 Bft) 97,87 %
28.06.2020 00:56 22,2 C 21,1 C 20,6 C 74 % 1010,2 hPa 0,0 l/m 0 min 0 min 0 W/m 12,9 km/h (3 Bft) 95,74 %
28.06.2020 00:58 22,2 C 21,1 C 20,6 C 74 % 1010,2 hPa 0,0 l/m 0 min 0 min 0 W/m 6,4 km/h (2 Bft) 97,87 %
28.06.2020 01:00 22,2 C 21,1 C 20,6 C 74 % 1010,2 hPa 0,0 l/m 0 min 0 min 0 W/m 3,2 km/h (1 Bft) 97,87 %
28.06.2020 01:02 22,2 C 20,6 C 20,6 C 74 % 1010,2 hPa 0,0 l/m 0 min 0 min 0 W/m 3,2 km/h (1 Bft) 97,92 %
28.06.2020 01:04 22,2 C 21,1 C 20,6 C 74 % 1010,2 hPa 0,0 l/m 0 min 0 min 0 W/m 12,9 km/h (3 Bft) 95,74 %
28.06.2020 01:06 22,2 C 21,1 C 20,6 C 74 % 1010,2 hPa 0,0 l/m 0 min 0 min 0 W/m 12,9 km/h (3 Bft) 97,87 %
28.06.2020 01:08 22,2 C 21,1 C 20,6 C 74 % 1010,2 hPa 0,0 l/m 0 min 0 min 0 W/m 6,4 km/h (2 Bft) 97,83 %
28.06.2020 01:10 22,1 C 21,1 C 20,6 C 74 % 1010,2 hPa 0,0 l/m 0 min 0 min 0 W/m 3,2 km/h (1 Bft) 97,87 %
28.06.2020 01:12 22,1 C 20,6 C 20,6 C 75 % 1010,1 hPa 0,0 l/m 0 min 0 min 0 W/m 3,2 km/h (1 Bft) 95,74 %
28.06.2020 01:14 22,1 C 20,6 C 20,6 C 75 % 1010,2 hPa 0,0 l/m 0 min 0 min 0 W/m 3,2 km/h (1 Bft) 97,87 %
28.06.2020 01:16 22,1 C 20,6 C 20,6 C 75 % 1010,2 hPa 0,0 l/m 0 min 0 min 0 W/m 3,2 km/h (1 Bft) 100,00 %
28.06.2020 01:18 22,1 C 20,6 C 20,6 C 74 % 1010,2 hPa 0,0 l/m 0 min 0 min 0 W/m 3,2 km/h (1 Bft) 97,87 %
28.06.2020 01:20 22,1 C 20,6 C 20,6 C 75 % 1010,2 hPa 0,0 l/m 0 min 0 min 0 W/m 0,0 km/h (0 Bft) 100,00 %
28.06.2020 01:22 22,1 C 20,6 C 20,6 C 75 % 1010,1 hPa 0,0 l/m 0 min 0 min 0 W/m 6,4 km/h (2 Bft) 100,00 %
28.06.2020 01:24 22,1 C 20,6 C 20,6 C 75 % 1010,2 hPa 0,0 l/m 0 min 0 min 0 W/m 3,2 km/h (1 Bft) 100,00 %
28.06.2020 01:26 22,1 C 20,6 C 20,6 C 75 % 1010,2 hPa 0,0 l/m 0 min 0 min 0 W/m 0,0 km/h (0 Bft) 95,74 %
28.06.2020 01:28 22,1 C 20,6 C 20,6 C 75 % 1010,2 hPa 0,0 l/m 0 min 0 min 0 W/m 3,2 km/h (1 Bft) 100,00 %
28.06.2020 01:30 22,0 C 20,6 C 20,6 C 75 % 1010,2 hPa 0,0 l/m 0 min 0 min 0 W/m 3,2 km/h (1 Bft) 100,00 %
28.06.2020 01:32 22,0 C 21,1 C 20,6 C 75 % 1010,2 hPa 0,0 l/m 0 min 0 min 0 W/m 3,2 km/h (1 Bft) 97,83 %
28.06.2020 01:34 22,0 C 21,1 C 20,6 C 75 % 1010,2 hPa 0,0 l/m 0 min 0 min 0 W/m 0,0 km/h (0 Bft) 100,00 %
28.06.2020 01:36 22,0 C 20,6 C 20,6 C 75 % 1010,2 hPa 0,0 l/m 0 min 0 min 0 W/m 0,0 km/h (0 Bft) 97,87 %
28.06.2020 01:38 22,0 C 21,1 C 20,6 C 75 % 1010,2 hPa 0,0 l/m 0 min 0 min 0 W/m 6,4 km/h (2 Bft) 100,00 %
28.06.2020 01:40 22,0 C 21,1 C 20,6 C 75 % 1010,2 hPa 0,0 l/m 0 min 0 min 0 W/m 3,2 km/h (1 Bft) 100,00 %
28.06.2020 01:42 22,0 C 20,6 C 20,6 C 75 % 1010,2 hPa 0,0 l/m 0 min 0 min 0 W/m 0,0 km/h (0 Bft) 97,87 %
28.06.2020 01:44 21,9 C 20,6 C 20,6 C 75 % 1010,2 hPa 0,0 l/m 0 min 0 min 0 W/m 3,2 km/h (1 Bft) 100,00 %
28.06.2020 01:46 21,9 C 20,6 C 20,6 C 75 % 1010,2 hPa 0,0 l/m 0 min 0 min 0 W/m 0,0 km/h (0 Bft) 100,00 %
28.06.2020 01:48 21,9 C 20,6 C 20,6 C 75 % 1010,2 hPa 0,0 l/m 0 min 0 min 0 W/m 3,2 km/h (1 Bft) 100,00 %
28.06.2020 01:50 21,9 C 20,6 C 20,6 C 75 % 1010,2 hPa 0,0 l/m 0 min 0 min 0 W/m 3,2 km/h (1 Bft) 100,00 %
28.06.2020 01:52 21,9 C 20,6 C 20,6 C 75 % 1010,2 hPa 0,0 l/m 0 min 0 min 0 W/m 0,0 km/h (0 Bft) 100,00 %
28.06.2020 01:54 21,9 C 20,6 C 20,6 C 76 % 1010,2 hPa 0,0 l/m 0 min 0 min 0 W/m 3,2 km/h (1 Bft) 100,00 %
28.06.2020 01:56 21,9 C 20,6 C 20,6 C 76 % 1010,1 hPa 0,0 l/m 0 min 0 min 0 W/m 6,4 km/h (2 Bft) 100,00 %
28.06.2020 01:58 21,9 C 20,6 C 20,6 C 76 % 1010,1 hPa 0,0 l/m 0 min 0 min 0 W/m 3,2 km/h (1 Bft) 100,00 %
28.06.2020 02:00 21,9 C 20,6 C 20,6 C 76 % 1010,1 hPa 0,0 l/m 0 min 0 min 0 W/m 3,2 km/h (1 Bft) 97,87 %
28.06.2020 02:02 21,9 C 20,6 C 20,6 C 76 % 1010,1 hPa 0,0 l/m 0 min 0 min 0 W/m 0,0 km/h (0 Bft) 100,00 %
28.06.2020 02:04 21,9 C 20,6 C 20,6 C 76 % 1010,1 hPa 0,0 l/m 0 min 0 min 0 W/m 6,4 km/h (2 Bft) 97,87 %
28.06.2020 02:06 21,9 C 20,6 C 20,6 C 76 % 1010,1 hPa 0,0 l/m 0 min 0 min 0 W/m 0,0 km/h (0 Bft) 95,74 %
28.06.2020 02:08 21,9 C 20,6 C 20,6 C 76 % 1010,1 hPa 0,0 l/m 0 min 0 min 0 W/m 0,0 km/h (0 Bft) 95,65 %
28.06.2020 02:10 21,9 C 20,6 C 20,6 C 76 % 1010,1 hPa 0,0 l/m 0 min 0 min 0 W/m 0,0 km/h (0 Bft) 97,87 %
28.06.2020 02:12 21,9 C 20,6 C 20,6 C 76 % 1010,2 hPa 0,0 l/m 0 min 0 min 0 W/m 0,0 km/h (0 Bft) 97,87 %
28.06.2020 02:14 21,9 C 20,6 C 20,6 C 76 % 1010,2 hPa 0,0 l/m 0 min 0 min 0 W/m 6,4 km/h (2 Bft) 97,87 %
28.06.2020 02:16 21,9 C 20,6 C 20,6 C 77 % 1010,1 hPa 0,0 l/m 0 min 0 min 0 W/m 6,4 km/h (2 Bft) 95,74 %
28.06.2020 02:18 21,9 C 20,6 C 20,6 C 77 % 1010,2 hPa 0,0 l/m 0 min 0 min 0 W/m 3,2 km/h (1 Bft) 95,74 %
28.06.2020 02:20 21,9 C 20,6 C 20,6 C 77 % 1010,2 hPa 0,0 l/m 0 min 0 min 0 W/m 3,2 km/h (1 Bft) 97,83 %
28.06.2020 02:22 21,9 C 20,6 C 20,6 C 77 % 1010,1 hPa 0,0 l/m 0 min 0 min 0 W/m 6,4 km/h (2 Bft) 95,74 %
28.06.2020 02:24 21,9 C 20,6 C 20,6 C 77 % 1010,1 hPa 0,0 l/m 0 min 0 min 0 W/m 6,4 km/h (2 Bft) 95,74 %
28.06.2020 02:26 21,8 C 20,6 C 20,6 C 77 % 1010,1 hPa 0,0 l/m 0 min 0 min 0 W/m 6,4 km/h (2 Bft) 95,74 %
28.06.2020 02:28 21,8 C 20,6 C 20,6 C 77 % 1010,1 hPa 0,0 l/m 0 min 0 min 0 W/m 3,2 km/h (1 Bft) 95,74 %
28.06.2020 02:30 21,8 C 20,6 C 20,6 C 77 % 1010,1 hPa 0,0 l/m 0 min 0 min 0 W/m 16,1 km/h (3 Bft) 95,74 %
28.06.2020 02:32 21,8 C 20,6 C 20,6 C 77 % 1010,1 hPa 0,0 l/m 0 min 0 min 0 W/m 6,4 km/h (2 Bft) 95,65 %
28.06.2020 02:34 21,8 C 20,6 C 20,6 C 77 % 1010,1 hPa 0,0 l/m 0 min 0 min 0 W/m 6,4 km/h (2 Bft) 93,62 %
28.06.2020 02:36 21,8 C 20,6 C 20,6 C 77 % 1010,1 hPa 0,0 l/m 0 min 0 min 0 W/m 6,4 km/h (2 Bft) 93,62 %
28.06.2020 02:38 21,7 C 20,6 C 20,6 C 77 % 1010,1 hPa 0,0 l/m 0 min 0 min 0 W/m 6,4 km/h (2 Bft) 93,62 %
28.06.2020 02:40 21,7 C 20,6 C 20,0 C 77 % 1010,1 hPa 0,0 l/m 0 min 0 min 0 W/m 6,4 km/h (2 Bft) 93,62 %
28.06.2020 02:42 21,7 C 20,6 C 20,0 C 77 % 1010,1 hPa 0,0 l/m 0 min 0 min 0 W/m 12,9 km/h (3 Bft) 95,65 %
28.06.2020 02:44 21,7 C 20,6 C 20,0 C 77 % 1010,1 hPa 0,0 l/m 0 min 0 min 0 W/m 9,7 km/h (2 Bft) 95,74 %
28.06.2020 02:46 21,7 C 20,6 C 20,0 C 77 % 1010,2 hPa 0,0 l/m 0 min 0 min 0 W/m 16,1 km/h (3 Bft) 93,62 %
28.06.2020 02:48 21,6 C 20,6 C 20,0 C 77 % 1010,2 hPa 0,0 l/m 0 min 0 min 0 W/m 16,1 km/h (3 Bft) 93,62 %
28.06.2020 02:50 21,6 C 20,6 C 20,0 C 77 % 1010,2 hPa 0,0 l/m 0 min 0 min 0 W/m 22,5 km/h (4 Bft) 95,74 %
28.06.2020 02:52 21,6 C 20,6 C 20,6 C 77 % 1010,2 hPa 0,0 l/m 0 min 0 min 0 W/m 12,9 km/h (3 Bft) 93,62 %
28.06.2020 02:54 21,6 C 20,6 C 20,6 C 77 % 1010,1 hPa 0,0 l/m 0 min 0 min 0 W/m 6,4 km/h (2 Bft) 95,65 %
28.06.2020 02:56 21,6 C 20,6 C 20,6 C 77 % 1010,0 hPa 0,0 l/m 0 min 0 min 0 W/m 12,9 km/h (3 Bft) 95,74 %
28.06.2020 02:58 21,6 C 20,6 C 20,6 C 76 % 1010,1 hPa 0,0 l/m 0 min 0 min 0 W/m 16,1 km/h (3 Bft) 97,14 %
28.06.2020 03:00 21,6 C 20,6 C 20,6 C 76 % 1010,1 hPa 0,0 l/m 0 min 0 min 0 W/m 16,1 km/h (3 Bft) 95,74 %
28.06.2020 03:02 21,5 C 20,6 C 20,6 C 76 % 1010,0 hPa 0,0 l/m 0 min 0 min 0 W/m 16,1 km/h (3 Bft) 93,62 %
28.06.2020 03:04 21,5 C 20,6 C 20,6 C 76 % 1010,1 hPa 0,0 l/m 0 min 0 min 0 W/m 19,3 km/h (3 Bft) 97,87 %
28.06.2020 03:06 21,5 C 20,6 C 20,6 C 76 % 1010,1 hPa 0,0 l/m 0 min 0 min 0 W/m 6,4 km/h (2 Bft) 93,62 %
28.06.2020 03:08 21,5 C 20,6 C 20,6 C 76 % 1010,1 hPa 0,0 l/m 0 min 0 min 0 W/m 19,3 km/h (3 Bft) 97,87 %
28.06.2020 03:10 21,5 C 20,6 C 20,6 C 76 % 1010,1 hPa 0,0 l/m 0 min 0 min 0 W/m 12,9 km/h (3 Bft) 93,48 %
28.06.2020 03:12 21,5 C 20,6 C 20,6 C 76 % 1010,2 hPa 0,0 l/m 0 min 0 min 0 W/m 16,1 km/h (3 Bft) 91,49 %
28.06.2020 03:14 21,5 C 20,6 C 20,6 C 76 % 1010,2 hPa 0,0 l/m 0 min 0 min 0 W/m 16,1 km/h (3 Bft) 95,74 %
28.06.2020 03:16 21,5 C 20,6 C 20,6 C 76 % 1010,1 hPa 0,0 l/m 0 min 0 min 0 W/m 12,9 km/h (3 Bft) 95,74 %
28.06.2020 03:18 21,5 C 20,6 C 20,6 C 76 % 1010,2 hPa 0,0 l/m 0 min 0 min 0 W/m 16,1 km/h (3 Bft) 97,87 %
28.06.2020 03:20 21,5 C 20,6 C 20,6 C 76 % 1010,2 hPa 0,0 l/m 0 min 0 min 0 W/m 12,9 km/h (3 Bft) 95,74 %
28.06.2020 03:22 21,5 C 20,6 C 20,6 C 76 % 1010,2 hPa 0,0 l/m 0 min 0 min 0 W/m 6,4 km/h (2 Bft) 95,65 %
28.06.2020 03:24 21,5 C 20,6 C 20,0 C 76 % 1010,2 hPa 0,0 l/m 0 min 0 min 0 W/m 16,1 km/h (3 Bft) 97,87 %
28.06.2020 03:26 21,5 C 20,0 C 20,0 C 76 % 1010,2 hPa 0,0 l/m 0 min 0 min 0 W/m 12,9 km/h (3 Bft) 97,87 %
28.06.2020 03:28 21,5 C 20,0 C 20,0 C 76 % 1010,2 hPa 0,0 l/m 0 min 0 min 0 W/m 22,5 km/h (4 Bft) 93,62 %
28.06.2020 03:30 21,4 C 20,6 C 20,0 C 76 % 1010,1 hPa 0,0 l/m 0 min 0 min 0 W/m 19,3 km/h (3 Bft) 98,28 %
28.06.2020 03:32 21,4 C 20,0 C 20,0 C 76 % 1010,1 hPa 0,0 l/m 0 min 0 min 0 W/m 16,1 km/h (3 Bft) 97,87 %
28.06.2020 03:34 21,4 C 20,0 C 20,0 C 76 % 1010,1 hPa 0,0 l/m 0 min 0 min 0 W/m 6,4 km/h (2 Bft) 97,87 %
28.06.2020 03:36 21,4 C 20,0 C 20,0 C 76 % 1010,1 hPa 0,0 l/m 0 min 0 min 0 W/m 16,1 km/h (3 Bft) 97,87 %
28.06.2020 03:38 21,4 C 20,0 C 20,0 C 76 % 1010,2 hPa 0,0 l/m 0 min 0 min 0 W/m 16,1 km/h (3 Bft) 97,87 %
28.06.2020 03:40 21,4 C 20,0 C 20,0 C 77 % 1010,1 hPa 0,0 l/m 0 min 0 min 0 W/m 25,7 km/h (4 Bft) 95,74 %
28.06.2020 03:42 21,4 C 20,0 C 20,0 C 77 % 1010,1 hPa 0,0 l/m 0 min 0 min 0 W/m 16,1 km/h (3 Bft) 97,83 %
28.06.2020 03:44 21,3 C 20,0 C 20,0 C 77 % 1010,1 hPa 0,0 l/m 0 min 0 min 0 W/m 25,7 km/h (4 Bft) 97,87 %
28.06.2020 03:46 21,3 C 20,0 C 20,0 C 77 % 1010,1 hPa 0,0 l/m 0 min 0 min 0 W/m 12,9 km/h (3 Bft) 97,87 %
28.06.2020 03:48 21,3 C 20,0 C 20,0 C 77 % 1010,0 hPa 0,0 l/m 0 min 0 min 0 W/m 12,9 km/h (3 Bft) 97,87 %
28.06.2020 03:50 21,3 C 20,0 C 20,0 C 77 % 1010,1 hPa 0,0 l/m 0 min 0 min 0 W/m 12,9 km/h (3 Bft) 97,87 %
28.06.2020 03:52 21,3 C 20,0 C 20,0 C 77 % 1010,1 hPa 0,0 l/m 0 min 0 min 0 W/m 12,9 km/h (3 Bft) 97,87 %
28.06.2020 03:54 21,3 C 20,0 C 20,0 C 78 % 1010,1 hPa 0,0 l/m 0 min 0 min 0 W/m 25,7 km/h (4 Bft) 95,65 %
28.06.2020 03:56 21,2 C 20,0 C 20,0 C 78 % 1010,1 hPa 0,0 l/m 0 min 0 min 0 W/m 19,3 km/h (3 Bft) 100,00 %
28.06.2020 03:58 21,2 C 20,0 C 20,0 C 78 % 1010,1 hPa 0,0 l/m 0 min 0 min 0 W/m 12,9 km/h (3 Bft) 97,87 %
28.06.2020 04:00 21,2 C 20,0 C 20,0 C 78 % 1010,1 hPa 0,0 l/m 0 min 0 min 0 W/m 22,5 km/h (4 Bft) 97,87 %
28.06.2020 04:02 21,2 C 20,0 C 20,0 C 78 % 1010,1 hPa 0,0 l/m 0 min 0 min 0 W/m 16,1 km/h (3 Bft) 95,83 %
28.06.2020 04:04 21,2 C 20,0 C 20,0 C 78 % 1010,0 hPa 0,0 l/m 0 min 0 min 0 W/m 6,4 km/h (2 Bft) 97,87 %
28.06.2020 04:06 21,2 C 20,0 C 20,0 C 78 % 1010,1 hPa 0,0 l/m 0 min 0 min 0 W/m 3,2 km/h (1 Bft) 100,00 %
28.06.2020 04:08 21,1 C 20,0 C 20,0 C 78 % 1010,0 hPa 0,0 l/m 0 min 0 min 0 W/m 12,9 km/h (3 Bft) 95,65 %
28.06.2020 04:10 21,1 C 20,0 C 20,0 C 78 % 1010,0 hPa 0,0 l/m 0 min 0 min 0 W/m 19,3 km/h (3 Bft) 100,00 %
28.06.2020 04:12 21,1 C 20,0 C 20,0 C 78 % 1009,9 hPa 0,0 l/m 0 min 0 min 0 W/m 19,3 km/h (3 Bft) 100,00 %
28.06.2020 04:14 21,1 C 20,0 C 20,0 C 79 % 1009,9 hPa 0,0 l/m 0 min 0 min 0 W/m 6,4 km/h (2 Bft) 100,00 %
28.06.2020 04:16 21,1 C 20,0 C 20,0 C 79 % 1010,0 hPa 0,0 l/m 0 min 0 min 0 W/m 16,1 km/h (3 Bft) 97,87 %
28.06.2020 04:18 21,1 C 20,0 C 20,0 C 79 % 1010,0 hPa 0,0 l/m 0 min 0 min 0 W/m 19,3 km/h (3 Bft) 100,00 %
28.06.2020 04:20 21,1 C 20,0 C 19,4 C 79 % 1010,0 hPa 0,0 l/m 0 min 0 min 0 W/m 12,9 km/h (3 Bft) 97,83 %
28.06.2020 04:22 21,1 C 20,0 C 19,4 C 79 % 1010,1 hPa 0,0 l/m 0 min 0 min 0 W/m 12,9 km/h (3 Bft) 100,00 %
28.06.2020 04:24 21,1 C 20,0 C 19,4 C 79 % 1010,0 hPa 0,0 l/m 0 min 0 min 0 W/m 3,2 km/h (1 Bft) 97,87 %
28.06.2020 04:26 21,0 C 19,4 C 19,4 C 79 % 1010,0 hPa 0,0 l/m 0 min 0 min 0 W/m 12,9 km/h (3 Bft) 100,00 %
28.06.2020 04:28 21,0 C 19,4 C 19,4 C 79 % 1010,1 hPa 0,0 l/m 0 min 0 min 0 W/m 6,4 km/h (2 Bft) 100,00 %
28.06.2020 04:30 21,0 C 19,4 C 19,4 C 79 % 1010,1 hPa 0,0 l/m 0 min 0 min 0 W/m 16,1 km/h (3 Bft) 100,00 %
28.06.2020 04:32 20,9 C 19,4 C 19,4 C 80 % 1010,0 hPa 0,0 l/m 0 min 0 min 0 W/m 16,1 km/h (3 Bft) 100,00 %
28.06.2020 04:34 20,9 C 19,4 C 19,4 C 80 % 1010,0 hPa 0,0 l/m 0 min 0 min 0 W/m 16,1 km/h (3 Bft) 100,00 %
28.06.2020 04:36 20,9 C 19,4 C 19,4 C 80 % 1010,0 hPa 0,0 l/m 0 min 0 min 0 W/m 12,9 km/h (3 Bft) 100,00 %
28.06.2020 04:38 20,9 C 19,4 C 19,4 C 80 % 1010,0 hPa 0,0 l/m 0 min 0 min 0 W/m 6,4 km/h (2 Bft) 100,00 %
28.06.2020 04:40 20,9 C 19,4 C 19,4 C 80 % 1010,0 hPa 0,0 l/m 0 min 0 min 0 W/m 3,2 km/h (1 Bft) 100,00 %
28.06.2020 04:42 20,9 C 19,4 C 19,4 C 80 % 1010,0 hPa 0,0 l/m 0 min 0 min 0 W/m 3,2 km/h (1 Bft) 100,00 %
28.06.2020 04:44 20,9 C 19,4 C 19,4 C 80 % 1010,0 hPa 0,0 l/m 0 min 0 min 0 W/m 6,4 km/h (2 Bft) 100,00 %
28.06.2020 04:46 20,8 C 19,4 C 19,4 C 80 % 1010,0 hPa 0,0 l/m 0 min 0 min 0 W/m 3,2 km/h (1 Bft) 97,87 %
28.06.2020 04:48 20,8 C 19,4 C 19,4 C 80 % 1010,0 hPa 0,0 l/m 0 min 0 min 0 W/m 0,0 km/h (0 Bft) 100,00 %
28.06.2020 04:50 20,8 C 19,4 C 19,4 C 80 % 1010,0 hPa 0,0 l/m 0 min 0 min 0 W/m 3,2 km/h (1 Bft) 100,00 %
28.06.2020 04:52 20,8 C 19,4 C 19,4 C 80 % 1009,9 hPa 0,0 l/m 0 min 0 min 0 W/m 19,3 km/h (3 Bft) 97,87 %
28.06.2020 04:54 20,8 C 19,4 C 19,4 C 80 % 1009,9 hPa 0,0 l/m 0 min 0 min 0 W/m 9,7 km/h (2 Bft) 100,00 %
28.06.2020 04:56 20,8 C 19,4 C 19,4 C 80 % 1009,9 hPa 0,0 l/m 0 min 0 min 0 W/m 6,4 km/h (2 Bft) 97,87 %
28.06.2020 04:58 20,7 C 19,4 C 19,4 C 80 % 1009,9 hPa 0,0 l/m 0 min 0 min 0 W/m 3,2 km/h (1 Bft) 100,00 %
28.06.2020 05:00 20,7 C 19,4 C 19,4 C 80 % 1009,9 hPa 0,0 l/m 0 min 0 min 0 W/m 12,9 km/h (3 Bft) 100,00 %
28.06.2020 05:02 20,7 C 19,4 C 19,4 C 80 % 1009,9 hPa 0,0 l/m 0 min 0 min 0 W/m 12,9 km/h (3 Bft) 100,00 %
28.06.2020 05:04 20,7 C 19,4 C 19,4 C 80 % 1009,9 hPa 0,0 l/m 0 min 0 min 0 W/m 16,1 km/h (3 Bft) 97,87 %
28.06.2020 05:06 20,7 C 19,4 C 19,4 C 80 % 1009,9 hPa 0,0 l/m 0 min 0 min 0 W/m 12,9 km/h (3 Bft) 98,08 %
28.06.2020 05:08 20,7 C 19,4 C 19,4 C 80 % 1009,9 hPa 0,0 l/m 0 min 0 min 0 W/m 16,1 km/h (3 Bft) 100,00 %
28.06.2020 05:10 20,6 C 19,4 C 19,4 C 81 % 1009,9 hPa 0,0 l/m 0 min 0 min 0 W/m 9,7 km/h (2 Bft) 97,87 %
28.06.2020 05:12 20,6 C 19,4 C 19,4 C 81 % 1009,8 hPa 0,0 l/m 0 min 0 min 0 W/m 6,4 km/h (2 Bft) 95,74 %
28.06.2020 05:14 20,6 C 19,4 C 19,4 C 81 % 1009,7 hPa 0,0 l/m 0 min 0 min 0 W/m 16,1 km/h (3 Bft) 97,87 %
28.06.2020 05:16 20,6 C 19,4 C 19,4 C 81 % 1009,8 hPa 0,0 l/m 0 min 0 min 0 W/m 16,1 km/h (3 Bft) 97,87 %
28.06.2020 05:18 20,6 C 19,4 C 19,4 C 81 % 1009,9 hPa 0,0 l/m 0 min 0 min 0 W/m 16,1 km/h (3 Bft) 97,83 %
28.06.2020 05:20 20,6 C 19,4 C 19,4 C 81 % 1009,8 hPa 0,0 l/m 0 min 0 min 0 W/m 6,4 km/h (2 Bft) 95,74 %
28.06.2020 05:22 20,6 C 19,4 C 18,9 C 81 % 1009,7 hPa 0,0 l/m 0 min 0 min 0 W/m 12,9 km/h (3 Bft) 97,87 %
28.06.2020 05:24 20,5 C 19,4 C 18,9 C 81 % 1009,9 hPa 0,0 l/m 0 min 0 min 0 W/m 9,7 km/h (2 Bft) 97,87 %
28.06.2020 05:26 20,5 C 19,4 C 18,9 C 81 % 1010,0 hPa 0,0 l/m 0 min 0 min 0 W/m 19,3 km/h (3 Bft) 97,87 %
28.06.2020 05:28 20,4 C 19,4 C 18,9 C 81 % 1009,9 hPa 0,0 l/m 0 min 0 min 0 W/m 22,5 km/h (4 Bft) 95,74 %
28.06.2020 05:30 20,4 C 19,4 C 18,9 C 81 % 1009,9 hPa 0,0 l/m 0 min 0 min 0 W/m 22,5 km/h (4 Bft) 95,65 %
28.06.2020 05:32 20,4 C 19,4 C 18,9 C 81 % 1009,9 hPa 0,0 l/m 0 min 0 min 5 W/m 19,3 km/h (3 Bft) 96,30 %
28.06.2020 05:34 20,4 C 19,4 C 18,9 C 81 % 1010,0 hPa 0,0 l/m 0 min 0 min 5 W/m 19,3 km/h (3 Bft) 95,74 %
28.06.2020 05:36 20,4 C 19,4 C 18,9 C 81 % 1010,0 hPa 0,0 l/m 0 min 0 min 5 W/m 22,5 km/h (4 Bft) 93,62 %
28.06.2020 05:38 20,3 C 19,4 C 18,9 C 81 % 1010,0 hPa 0,0 l/m 0 min 0 min 7 W/m 16,1 km/h (3 Bft) 95,65 %
28.06.2020 05:40 20,3 C 19,4 C 18,9 C 81 % 1010,0 hPa 0,0 l/m 0 min 0 min 7 W/m 29,0 km/h (5 Bft) 95,74 %
28.06.2020 05:42 20,3 C 19,4 C 18,9 C 81 % 1010,1 hPa 0,0 l/m 0 min 0 min 7 W/m 12,9 km/h (3 Bft) 91,49 %
28.06.2020 05:44 20,3 C 19,4 C 18,9 C 81 % 1010,1 hPa 0,0 l/m 0 min 0 min 9 W/m 25,7 km/h (4 Bft) 95,74 %
28.06.2020 05:46 20,3 C 19,4 C 18,9 C 81 % 1010,1 hPa 0,0 l/m 0 min 0 min 10 W/m 25,7 km/h (4 Bft) 93,62 %
28.06.2020 05:48 20,3 C 19,4 C 19,4 C 81 % 1010,1 hPa 0,0 l/m 0 min 0 min 11 W/m 22,5 km/h (4 Bft) 95,65 %
28.06.2020 05:50 20,3 C 19,4 C 19,4 C 81 % 1010,2 hPa 0,0 l/m 0 min 0 min 12 W/m 25,7 km/h (4 Bft) 93,62 %
28.06.2020 05:52 20,3 C 19,4 C 18,9 C 81 % 1010,1 hPa 0,0 l/m 0 min 0 min 12 W/m 19,3 km/h (3 Bft) 93,62 %
28.06.2020 05:54 20,3 C 19,4 C 18,9 C 81 % 1010,1 hPa 0,0 l/m 0 min 0 min 14 W/m 22,5 km/h (4 Bft) 93,62 %
28.06.2020 05:56 20,3 C 19,4 C 18,9 C 81 % 1010,2 hPa 0,0 l/m 0 min 0 min 14 W/m 19,3 km/h (3 Bft) 93,62 %
28.06.2020 05:58 20,3 C 19,4 C 18,9 C 80 % 1010,2 hPa 0,0 l/m 0 min 0 min 14 W/m 22,5 km/h (4 Bft) 91,49 %
28.06.2020 06:00 20,3 C 19,4 C 18,9 C 80 % 1010,2 hPa 0,0 l/m 0 min 0 min 16 W/m 22,5 km/h (4 Bft) 93,48 %
28.06.2020 06:02 20,3 C 19,4 C 19,4 C 80 % 1010,2 hPa 0,0 l/m 0 min 0 min 16 W/m 22,5 km/h (4 Bft) 91,49 %
28.06.2020 06:04 20,3 C 19,4 C 18,9 C 80 % 1010,2 hPa 0,0 l/m 0 min 0 min 16 W/m 22,5 km/h (4 Bft) 93,62 %
28.06.2020 06:08 20,3 C 19,4 C 18,9 C 80 % 1010,2 hPa 0,0 l/m 0 min 0 min 15 W/m 19,3 km/h (3 Bft) 93,81 %
28.06.2020 06:10 20,3 C 19,4 C 18,9 C 80 % 1010,2 hPa 0,0 l/m 0 min 0 min 14 W/m 16,1 km/h (3 Bft) 91,49 %
28.06.2020 06:12 20,3 C 19,4 C 19,4 C 80 % 1010,2 hPa 0,0 l/m 0 min 0 min 11 W/m 12,9 km/h (3 Bft) 91,30 %
28.06.2020 06:14 20,3 C 19,4 C 19,4 C 80 % 1010,4 hPa 0,0 l/m 0 min 0 min 8 W/m 6,4 km/h (2 Bft) 97,87 %
28.06.2020 06:16 20,3 C 19,4 C 18,9 C 80 % 1010,4 hPa 0,0 l/m 0 min 0 min 10 W/m 6,4 km/h (2 Bft) 95,74 %
28.06.2020 06:18 20,3 C 18,9 C 18,9 C 80 % 1010,4 hPa 0,0 l/m 0 min 0 min 13 W/m 3,2 km/h (1 Bft) 93,62 %
28.06.2020 06:20 20,2 C 18,9 C 18,9 C 80 % 1010,4 hPa 0,0 l/m 0 min 0 min 9 W/m 6,4 km/h (2 Bft) 95,74 %
28.06.2020 06:22 20,2 C 18,9 C 18,9 C 79 % 1010,5 hPa 0,0 l/m 0 min 0 min 5 W/m 0,0 km/h (0 Bft) 95,65 %
28.06.2020 06:24 20,2 C 18,3 C 18,9 C 79 % 1010,6 hPa 0,0 l/m 0 min 0 min 5 W/m 9,7 km/h (2 Bft) 95,74 %
28.06.2020 06:26 20,1 C 16,7 C 18,3 C 80 % 1010,7 hPa 0,0 l/m 0 min 2 min 5 W/m 3,2 km/h (1 Bft) 95,74 %
28.06.2020 06:28 20,1 C 16,1 C 18,3 C 81 % 1010,7 hPa 0,0 l/m 0 min 2 min 5 W/m 3,2 km/h (1 Bft) 95,74 %
28.06.2020 06:30 20,0 C 16,1 C 17,8 C 82 % 1010,7 hPa 0,0 l/m 0 min 2 min 4 W/m 6,4 km/h (2 Bft) 97,96 %
28.06.2020 06:32 19,8 C 15,6 C 17,8 C 82 % 1010,7 hPa 0,0 l/m 0 min 2 min 0 W/m 3,2 km/h (1 Bft) 97,87 %
28.06.2020 06:34 19,8 C 16,1 C 17,2 C 83 % 1010,7 hPa 0,0 l/m 0 min 0 min 5 W/m 3,2 km/h (1 Bft) 95,74 %
28.06.2020 06:36 19,7 C 16,1 C 17,2 C 83 % 1010,7 hPa 0,0 l/m 0 min 0 min 12 W/m 0,0 km/h (0 Bft) 97,83 %
28.06.2020 06:38 19,6 C 16,1 C 17,2 C 83 % 1010,7 hPa 0,0 l/m 0 min 0 min 19 W/m 0,0 km/h (0 Bft) 100,00 %
28.06.2020 06:40 19,5 C 16,1 C 17,2 C 84 % 1010,8 hPa 0,0 l/m 0 min 0 min 21 W/m 0,0 km/h (0 Bft) 97,87 %
28.06.2020 06:42 19,4 C 16,1 C 17,2 C 84 % 1010,7 hPa 0,0 l/m 0 min 0 min 20 W/m 3,2 km/h (1 Bft) 100,00 %
28.06.2020 06:44 19,3 C 16,1 C 17,2 C 84 % 1010,7 hPa 0,0 l/m 0 min 0 min 21 W/m 0,0 km/h (0 Bft) 100,00 %
28.06.2020 06:46 19,2 C 16,1 C 17,2 C 84 % 1010,7 hPa 0,0 l/m 0 min 0 min 25 W/m 0,0 km/h (0 Bft) 97,87 %
28.06.2020 06:48 19,1 C 16,1 C 17,2 C 84 % 1010,8 hPa 0,0 l/m 0 min 0 min 25 W/m 6,4 km/h (2 Bft) 100,00 %
28.06.2020 06:50 19,1 C 16,1 C 17,2 C 84 % 1010,8 hPa 0,0 l/m 0 min 0 min 25 W/m 3,2 km/h (1 Bft) 95,74 %
28.06.2020 06:52 18,9 C 16,1 C 17,2 C 84 % 1010,8 hPa 0,0 l/m 0 min 0 min 23 W/m 3,2 km/h (1 Bft) 100,00 %
28.06.2020 06:54 18,9 C 16,1 C 17,2 C 84 % 1010,9 hPa 0,0 l/m 0 min 0 min 23 W/m 3,2 km/h (1 Bft) 100,00 %
28.06.2020 06:56 18,8 C 16,1 C 17,2 C 84 % 1010,9 hPa 0,0 l/m 0 min 0 min 24 W/m 3,2 km/h (1 Bft) 95,74 %
28.06.2020 06:58 18,7 C 16,1 C 17,2 C 85 % 1010,9 hPa 0,0 l/m 0 min 0 min 27 W/m 3,2 km/h (1 Bft) 100,00 %
28.06.2020 07:00 18,6 C 16,1 C 17,2 C 84 % 1011,0 hPa 0,0 l/m 0 min 0 min 28 W/m 3,2 km/h (1 Bft) 100,00 %
28.06.2020 07:02 18,6 C 16,1 C 17,2 C 84 % 1011,0 hPa 0,0 l/m 0 min 0 min 26 W/m 6,4 km/h (2 Bft) 100,00 %
28.06.2020 07:04 18,4 C 16,1 C 17,2 C 84 % 1011,0 hPa 0,0 l/m 0 min 0 min 26 W/m 6,4 km/h (2 Bft) 97,87 %
28.06.2020 07:06 18,4 C 16,1 C 17,2 C 85 % 1011,0 hPa 0,0 l/m 0 min 0 min 32 W/m 0,0 km/h (0 Bft) 100,00 %
28.06.2020 07:08 18,3 C 16,7 C 17,2 C 85 % 1011,1 hPa 0,0 l/m 0 min 0 min 34 W/m 3,2 km/h (1 Bft) 100,00 %
28.06.2020 07:10 18,3 C 16,7 C 17,2 C 85 % 1011,0 hPa 0,0 l/m 0 min 0 min 37 W/m 0,0 km/h (0 Bft) 100,00 %
28.06.2020 07:12 18,3 C 16,7 C 17,2 C 85 % 1011,1 hPa 0,0 l/m 0 min 0 min 40 W/m 3,2 km/h (1 Bft) 100,00 %
28.06.2020 07:14 18,3 C 16,7 C 17,2 C 85 % 1011,1 hPa 0,0 l/m 0 min 0 min 42 W/m 3,2 km/h (1 Bft) 100,00 %
28.06.2020 07:16 18,2 C 16,7 C 16,7 C 85 % 1011,1 hPa 0,0 l/m 0 min 0 min 44 W/m 0,0 km/h (0 Bft) 100,00 %
28.06.2020 07:18 18,2 C 16,7 C 16,7 C 85 % 1011,2 hPa 0,0 l/m 0 min 0 min 46 W/m 6,4 km/h (2 Bft) 97,87 %
28.06.2020 07:20 18,2 C 16,7 C 17,2 C 85 % 1011,2 hPa 0,0 l/m 0 min 0 min 47 W/m 3,2 km/h (1 Bft) 100,00 %
28.06.2020 07:22 18,1 C 16,7 C 17,2 C 85 % 1011,2 hPa 0,0 l/m 0 min 0 min 50 W/m 6,4 km/h (2 Bft) 100,00 %
28.06.2020 07:24 18,1 C 16,7 C 17,2 C 85 % 1011,2 hPa 0,0 l/m 0 min 0 min 56 W/m 3,2 km/h (1 Bft) 100,00 %
28.06.2020 07:26 18,1 C 16,7 C 17,2 C 85 % 1011,3 hPa 0,0 l/m 0 min 0 min 61 W/m 0,0 km/h (0 Bft) 100,00 %
28.06.2020 07:28 18,1 C 16,7 C 17,2 C 85 % 1011,3 hPa 0,0 l/m 0 min 0 min 59 W/m 3,2 km/h (1 Bft) 100,00 %
28.06.2020 07:30 18,1 C 16,7 C 17,2 C 85 % 1011,3 hPa 0,0 l/m 0 min 0 min 49 W/m 0,0 km/h (0 Bft) 100,00 %
28.06.2020 07:32 18,1 C 16,7 C 17,2 C 86 % 1011,4 hPa 0,0 l/m 0 min 0 min 44 W/m 6,4 km/h (2 Bft) 100,00 %
28.06.2020 07:34 18,1 C 16,7 C 17,2 C 85 % 1011,5 hPa 0,0 l/m 0 min 0 min 38 W/m 6,4 km/h (2 Bft) 100,00 %
28.06.2020 07:36 18,1 C 16,7 C 17,2 C 85 % 1011,4 hPa 0,0 l/m 0 min 0 min 39 W/m 3,2 km/h (1 Bft) 100,00 %
28.06.2020 07:38 18,0 C 16,7 C 17,2 C 85 % 1011,5 hPa 0,0 l/m 0 min 0 min 40 W/m 3,2 km/h (1 Bft) 100,00 %
28.06.2020 07:40 18,0 C 16,7 C 17,2 C 85 % 1011,4 hPa 0,0 l/m 0 min 0 min 35 W/m 3,2 km/h (1 Bft) 100,00 %
28.06.2020 07:42 18,0 C 16,7 C 17,2 C 85 % 1011,4 hPa 0,0 l/m 0 min 0 min 29 W/m 3,2 km/h (1 Bft) 100,00 %
28.06.2020 07:44 17,9 C 16,7 C 17,2 C 85 % 1011,5 hPa 0,0 l/m 0 min 0 min 26 W/m 3,2 km/h (1 Bft) 100,00 %
28.06.2020 07:46 17,9 C 16,7 C 16,7 C 85 % 1011,6 hPa 0,0 l/m 0 min 0 min 30 W/m 3,2 km/h (1 Bft) 100,00 %
28.06.2020 07:48 17,9 C 16,7 C 16,7 C 85 % 1011,7 hPa 0,0 l/m 0 min 0 min 35 W/m 0,0 km/h (0 Bft) 100,00 %
28.06.2020 07:50 17,9 C 16,7 C 16,7 C 85 % 1011,8 hPa 0,0 l/m 0 min 0 min 40 W/m 3,2 km/h (1 Bft) 100,00 %
28.06.2020 07:52 17,9 C 16,7 C 16,7 C 86 % 1011,8 hPa 0,0 l/m 0 min 2 min 44 W/m 3,2 km/h (1 Bft) 100,00 %
28.06.2020 07:54 17,9 C 16,7 C 16,7 C 86 % 1011,8 hPa 0,0 l/m 0 min 0 min 41 W/m 6,4 km/h (2 Bft) 100,00 %
28.06.2020 07:56 17,9 C 16,7 C 16,7 C 86 % 1011,8 hPa 0,0 l/m 0 min 0 min 40 W/m 0,0 km/h (0 Bft) 100,00 %
28.06.2020 07:58 17,9 C 16,7 C 16,7 C 86 % 1011,8 hPa 0,0 l/m 0 min 0 min 38 W/m 6,4 km/h (2 Bft) 97,87 %
28.06.2020 08:00 17,9 C 16,7 C 16,7 C 86 % 1011,9 hPa 0,0 l/m 0 min 0 min 35 W/m 0,0 km/h (0 Bft) 100,00 %
28.06.2020 08:02 17,8 C 16,7 C 16,7 C 86 % 1011,9 hPa 0,0 l/m 0 min 0 min 37 W/m 0,0 km/h (0 Bft) 100,00 %
28.06.2020 08:04 17,9 C 16,7 C 16,7 C 86 % 1011,9 hPa 0,0 l/m 0 min 0 min 36 W/m 0,0 km/h (0 Bft) 97,87 %
28.06.2020 08:06 17,9 C 16,7 C 16,7 C 86 % 1012,0 hPa 0,0 l/m 0 min 0 min 33 W/m 0,0 km/h (0 Bft) 95,74 %
28.06.2020 08:08 17,8 C 16,7 C 16,7 C 86 % 1012,0 hPa 0,0 l/m 0 min 0 min 33 W/m 0,0 km/h (0 Bft) 100,00 %
28.06.2020 08:10 17,8 C 16,7 C 16,7 C 86 % 1012,0 hPa 0,0 l/m 0 min 0 min 33 W/m 0,0 km/h (0 Bft) 97,87 %
28.06.2020 08:12 17,8 C 16,7 C 16,7 C 86 % 1012,1 hPa 0,0 l/m 0 min 0 min 33 W/m 3,2 km/h (1 Bft) 97,83 %
28.06.2020 08:14 17,8 C 16,7 C 16,7 C 86 % 1012,2 hPa 0,0 l/m 0 min 2 min 33 W/m 3,2 km/h (1 Bft) 100,00 %
28.06.2020 08:16 17,8 C 16,1 C 16,7 C 86 % 1012,2 hPa 0,0 l/m 0 min 2 min 33 W/m 6,4 km/h (2 Bft) 97,87 %
28.06.2020 08:18 17,8 C 15,6 C 16,7 C 87 % 1012,3 hPa 0,2 l/m 0 min 2 min 36 W/m 0,0 km/h (0 Bft) 100,00 %
28.06.2020 08:20 17,8 C 15,0 C 16,7 C 87 % 1012,3 hPa 0,0 l/m 0 min 2 min 39 W/m 3,2 km/h (1 Bft) 95,74 %
28.06.2020 08:22 17,8 C 15,6 C 16,1 C 88 % 1012,3 hPa 0,0 l/m 0 min 2 min 43 W/m 0,0 km/h (0 Bft) 97,87 %
28.06.2020 08:24 17,8 C 15,0 C 16,1 C 88 % 1012,4 hPa 0,0 l/m 0 min 2 min 49 W/m 0,0 km/h (0 Bft) 97,83 %
28.06.2020 08:26 17,8 C 15,0 C 16,1 C 88 % 1012,4 hPa 0,0 l/m 0 min 2 min 55 W/m 0,0 km/h (0 Bft) 97,87 %
28.06.2020 08:28 17,8 C 15,6 C 16,1 C 88 % 1012,4 hPa 0,0 l/m 0 min 2 min 55 W/m 0,0 km/h (0 Bft) 97,87 %
28.06.2020 08:30 17,8 C 15,6 C 16,1 C 88 % 1012,4 hPa 0,0 l/m 0 min 0 min 54 W/m 9,7 km/h (2 Bft) 97,87 %
28.06.2020 08:32 17,7 C 15,6 C 16,1 C 88 % 1012,4 hPa 0,0 l/m 0 min 0 min 56 W/m 3,2 km/h (1 Bft) 97,87 %
28.06.2020 08:34 17,7 C 15,6 C 16,1 C 88 % 1012,5 hPa 0,0 l/m 0 min 0 min 62 W/m 6,4 km/h (2 Bft) 95,74 %
28.06.2020 08:36 17,7 C 15,6 C 16,1 C 89 % 1012,5 hPa 0,0 l/m 0 min 0 min 56 W/m 0,0 km/h (0 Bft) 95,65 %
28.06.2020 08:38 17,6 C 15,6 C 16,1 C 89 % 1012,6 hPa 0,0 l/m 0 min 0 min 53 W/m 9,7 km/h (2 Bft) 97,87 %
28.06.2020 08:40 17,6 C 15,6 C 16,1 C 89 % 1012,6 hPa 0,0 l/m 0 min 0 min 56 W/m 3,2 km/h (1 Bft) 93,62 %
28.06.2020 08:42 17,6 C 15,6 C 16,1 C 89 % 1012,6 hPa 0,0 l/m 0 min 2 min 63 W/m 3,2 km/h (1 Bft) 95,74 %
28.06.2020 08:44 17,5 C 15,0 C 16,1 C 89 % 1012,6 hPa 0,0 l/m 0 min 2 min 59 W/m 9,7 km/h (2 Bft) 95,74 %
28.06.2020 08:46 17,4 C 15,0 C 16,1 C 89 % 1012,6 hPa 0,0 l/m 0 min 0 min 53 W/m 6,4 km/h (2 Bft) 93,62 %
28.06.2020 08:48 17,4 C 15,0 C 16,1 C 89 % 1012,6 hPa 0,0 l/m 0 min 0 min 47 W/m 12,9 km/h (3 Bft) 95,65 %
28.06.2020 08:50 17,3 C 15,0 C 16,1 C 89 % 1012,7 hPa 0,0 l/m 0 min 0 min 47 W/m 3,2 km/h (1 Bft) 95,74 %
28.06.2020 08:52 17,3 C 15,0 C 16,1 C 89 % 1012,8 hPa 0,0 l/m 0 min 0 min 53 W/m 3,2 km/h (1 Bft) 95,74 %
28.06.2020 08:54 17,3 C 15,6 C 16,1 C 89 % 1012,8 hPa 0,0 l/m 0 min 2 min 60 W/m 12,9 km/h (3 Bft) 95,74 %
28.06.2020 08:56 17,3 C 15,6 C 16,1 C 89 % 1012,8 hPa 0,0 l/m 0 min 2 min 54 W/m 12,9 km/h (3 Bft) 95,74 %
28.06.2020 08:58 17,2 C 15,0 C 16,1 C 89 % 1012,8 hPa 0,0 l/m 0 min 2 min 47 W/m 6,4 km/h (2 Bft) 93,48 %
28.06.2020 09:00 17,2 C 15,6 C 16,1 C 88 % 1012,8 hPa 0,0 l/m 0 min 0 min 44 W/m 6,4 km/h (2 Bft) 95,74 %
28.06.2020 09:02 17,1 C 15,6 C 16,1 C 88 % 1012,9 hPa 0,0 l/m 0 min 0 min 47 W/m 16,1 km/h (3 Bft) 94,44 %
28.06.2020 09:04 17,1 C 15,6 C 15,6 C 88 % 1012,8 hPa 0,0 l/m 0 min 0 min 53 W/m 6,4 km/h (2 Bft) 97,56 %
28.06.2020 09:08 17,0 C 15,6 C 16,1 C 88 % 1012,9 hPa 0,0 l/m 0 min 0 min 55 W/m 9,7 km/h (2 Bft) 96,81 %
28.06.2020 09:10 17,0 C 15,6 C 15,6 C 88 % 1012,9 hPa 0,0 l/m 0 min 0 min 44 W/m 6,4 km/h (2 Bft) 97,83 %
28.06.2020 09:12 17,0 C 15,6 C 15,6 C 88 % 1012,9 hPa 0,0 l/m 0 min 0 min 48 W/m 3,2 km/h (1 Bft) 97,87 %
28.06.2020 09:14 16,9 C 15,6 C 15,6 C 88 % 1012,9 hPa 0,0 l/m 0 min 0 min 53 W/m 3,2 km/h (1 Bft) 93,62 %
28.06.2020 09:16 16,9 C 15,6 C 15,6 C 88 % 1012,9 hPa 0,0 l/m 0 min 0 min 48 W/m 3,2 km/h (1 Bft) 93,62 %
28.06.2020 09:18 16,9 C 15,6 C 15,6 C 88 % 1013,0 hPa 0,0 l/m 0 min 0 min 45 W/m 6,4 km/h (2 Bft) 95,74 %
28.06.2020 09:20 16,9 C 15,6 C 15,6 C 88 % 1013,0 hPa 0,0 l/m 0 min 0 min 42 W/m 6,4 km/h (2 Bft) 95,74 %
28.06.2020 09:22 16,9 C 15,6 C 15,6 C 88 % 1013,0 hPa 0,0 l/m 0 min 0 min 53 W/m 6,4 km/h (2 Bft) 95,65 %
28.06.2020 09:24 16,9 C 15,6 C 15,6 C 88 % 1012,9 hPa 0,0 l/m 0 min 0 min 63 W/m 6,4 km/h (2 Bft) 95,74 %
28.06.2020 09:26 16,9 C 16,1 C 15,6 C 88 % 1013,0 hPa 0,0 l/m 0 min 0 min 73 W/m 3,2 km/h (1 Bft) 95,74 %
28.06.2020 09:28 16,8 C 16,1 C 16,1 C 88 % 1013,1 hPa 0,0 l/m 0 min 0 min 72 W/m 12,9 km/h (3 Bft) 95,74 %
28.06.2020 09:30 16,8 C 16,1 C 15,6 C 88 % 1013,1 hPa 0,0 l/m 0 min 0 min 61 W/m 6,4 km/h (2 Bft) 97,87 %
28.06.2020 09:32 16,8 C 16,1 C 16,1 C 88 % 1013,0 hPa 0,0 l/m 0 min 0 min 62 W/m 6,4 km/h (2 Bft) 93,62 %
28.06.2020 09:34 16,8 C 16,1 C 15,6 C 88 % 1012,9 hPa 0,0 l/m 0 min 0 min 57 W/m 6,4 km/h (2 Bft) 97,83 %
28.06.2020 09:36 16,8 C 16,1 C 15,6 C 88 % 1013,1 hPa 0,0 l/m 0 min 0 min 54 W/m 16,1 km/h (3 Bft) 97,87 %
28.06.2020 09:38 16,8 C 16,1 C 15,6 C 88 % 1013,2 hPa 0,0 l/m 0 min 0 min 55 W/m 16,1 km/h (3 Bft) 97,87 %
28.06.2020 09:40 16,8 C 16,1 C 15,6 C 88 % 1013,3 hPa 0,0 l/m 0 min 0 min 59 W/m 12,9 km/h (3 Bft) 95,74 %
28.06.2020 09:42 16,8 C 16,1 C 15,6 C 88 % 1013,3 hPa 0,0 l/m 0 min 0 min 79 W/m 6,4 km/h (2 Bft) 97,87 %
28.06.2020 09:44 16,8 C 16,7 C 16,1 C 88 % 1013,2 hPa 0,0 l/m 0 min 0 min 94 W/m 6,4 km/h (2 Bft) 97,87 %
28.06.2020 09:46 16,8 C 16,7 C 16,1 C 88 % 1013,3 hPa 0,0 l/m 0 min 0 min 86 W/m 16,1 km/h (3 Bft) 95,65 %
28.06.2020 09:48 16,8 C 16,7 C 16,1 C 88 % 1013,3 hPa 0,0 l/m 0 min 0 min 78 W/m 19,3 km/h (3 Bft) 95,74 %
28.06.2020 09:50 16,8 C 16,7 C 16,1 C 88 % 1013,4 hPa 0,0 l/m 0 min 0 min 77 W/m 16,1 km/h (3 Bft) 95,74 %
28.06.2020 09:52 16,8 C 16,7 C 16,1 C 87 % 1013,3 hPa 0,0 l/m 0 min 0 min 84 W/m 6,4 km/h (2 Bft) 97,87 %
28.06.2020 09:54 16,8 C 16,7 C 16,1 C 87 % 1013,3 hPa 0,0 l/m 0 min 0 min 95 W/m 16,1 km/h (3 Bft) 97,87 %
28.06.2020 09:56 16,8 C 16,7 C 16,1 C 87 % 1013,4 hPa 0,0 l/m 0 min 0 min 95 W/m 12,9 km/h (3 Bft) 97,87 %
28.06.2020 09:58 16,8 C 16,7 C 16,1 C 86 % 1013,3 hPa 0,0 l/m 0 min 0 min 96 W/m 12,9 km/h (3 Bft) 97,83 %
28.06.2020 10:00 16,8 C 16,7 C 16,1 C 86 % 1013,3 hPa 0,0 l/m 0 min 0 min 109 W/m 9,7 km/h (2 Bft) 97,87 %
28.06.2020 10:02 16,8 C 16,7 C 16,1 C 86 % 1013,3 hPa 0,0 l/m 0 min 0 min 132 W/m 12,9 km/h (3 Bft) 97,87 %
28.06.2020 10:04 16,9 C 17,2 C 16,1 C 86 % 1013,3 hPa 0,0 l/m 0 min 0 min 146 W/m 16,1 km/h (3 Bft) 97,87 %
28.06.2020 10:06 16,9 C 17,2 C 16,1 C 85 % 1013,3 hPa 0,0 l/m 0 min 0 min 170 W/m 9,7 km/h (2 Bft) 97,87 %
28.06.2020 10:08 16,9 C 17,2 C 16,1 C 85 % 1013,2 hPa 0,0 l/m 0 min 0 min 193 W/m 16,1 km/h (3 Bft) 95,65 %
28.06.2020 10:10 16,9 C 17,8 C 16,7 C 84 % 1013,3 hPa 0,0 l/m 0 min 0 min 196 W/m 12,9 km/h (3 Bft) 95,74 %
28.06.2020 10:12 17,0 C 17,2 C 16,7 C 84 % 1013,4 hPa 0,0 l/m 0 min 0 min 175 W/m 29,0 km/h (5 Bft) 97,87 %
28.06.2020 10:14 17,0 C 17,2 C 16,7 C 83 % 1013,4 hPa 0,0 l/m 0 min 0 min 172 W/m 12,9 km/h (3 Bft) 97,87 %
28.06.2020 10:16 17,1 C 17,2 C 16,7 C 82 % 1013,4 hPa 0,0 l/m 0 min 0 min 170 W/m 22,5 km/h (4 Bft) 97,87 %
28.06.2020 10:18 17,1 C 17,2 C 16,7 C 82 % 1013,3 hPa 0,0 l/m 0 min 0 min 156 W/m 16,1 km/h (3 Bft) 97,87 %
28.06.2020 10:20 17,1 C 17,2 C 16,7 C 82 % 1013,3 hPa 0,0 l/m 0 min 0 min 149 W/m 6,4 km/h (2 Bft) 97,83 %
28.06.2020 10:22 17,2 C 17,2 C 16,7 C 82 % 1013,3 hPa 0,0 l/m 0 min 0 min 165 W/m 12,9 km/h (3 Bft) 100,00 %
28.06.2020 10:24 17,2 C 17,2 C 16,7 C 82 % 1013,4 hPa 0,0 l/m 0 min 0 min 179 W/m 19,3 km/h (3 Bft) 97,87 %
28.06.2020 10:26 17,2 C 17,2 C 16,7 C 81 % 1013,3 hPa 0,0 l/m 0 min 0 min 165 W/m 12,9 km/h (3 Bft) 97,87 %
28.06.2020 10:28 17,2 C 17,2 C 16,7 C 81 % 1013,4 hPa 0,0 l/m 0 min 0 min 164 W/m 12,9 km/h (3 Bft) 100,00 %
28.06.2020 10:30 17,3 C 17,8 C 16,7 C 81 % 1013,4 hPa 0,0 l/m 0 min 0 min 185 W/m 9,7 km/h (2 Bft) 97,87 %
28.06.2020 10:32 17,3 C 17,8 C 16,7 C 80 % 1013,4 hPa 0,0 l/m 0 min 0 min 223 W/m 19,3 km/h (3 Bft) 100,00 %
28.06.2020 10:34 17,3 C 17,8 C 16,7 C 80 % 1013,4 hPa 0,0 l/m 0 min 0 min 249 W/m 25,7 km/h (4 Bft) 97,87 %
28.06.2020 10:36 17,3 C 17,8 C 16,7 C 80 % 1013,5 hPa 0,0 l/m 0 min 0 min 201 W/m 12,9 km/h (3 Bft) 100,00 %
28.06.2020 10:38 17,4 C 17,8 C 16,7 C 80 % 1013,4 hPa 0,0 l/m 0 min 0 min 184 W/m 12,9 km/h (3 Bft) 97,87 %
28.06.2020 10:40 17,4 C 17,8 C 16,7 C 80 % 1013,6 hPa 0,0 l/m 0 min 0 min 181 W/m 9,7 km/h (2 Bft) 100,00 %
28.06.2020 10:42 17,4 C 17,8 C 16,7 C 80 % 1013,7 hPa 0,0 l/m 0 min 0 min 163 W/m 12,9 km/h (3 Bft) 100,00 %
28.06.2020 10:44 17,5 C 17,8 C 16,7 C 80 % 1013,7 hPa 0,0 l/m 0 min 0 min 150 W/m 9,7 km/h (2 Bft) 97,83 %
28.06.2020 10:46 17,5 C 17,8 C 16,7 C 79 % 1013,7 hPa 0,0 l/m 0 min 0 min 166 W/m 12,9 km/h (3 Bft) 100,00 %
28.06.2020 10:48 17,5 C 17,8 C 16,7 C 79 % 1013,7 hPa 0,0 l/m 0 min 0 min 208 W/m 22,5 km/h (4 Bft) 100,00 %
28.06.2020 10:50 17,6 C 17,8 C 16,7 C 78 % 1013,7 hPa 0,0 l/m 0 min 0 min 254 W/m 19,3 km/h (3 Bft) 100,00 %
28.06.2020 10:52 17,6 C 18,3 C 16,7 C 78 % 1013,8 hPa 0,0 l/m 0 min 0 min 284 W/m 35,4 km/h (5 Bft) 97,87 %
28.06.2020 10:54 17,6 C 18,3 C 17,2 C 77 % 1013,8 hPa 0,0 l/m 0 min 0 min 300 W/m 16,1 km/h (3 Bft) 97,87 %
28.06.2020 10:56 17,7 C 18,9 C 17,2 C 78 % 1013,8 hPa 0,0 l/m 0 min 0 min 266 W/m 16,1 km/h (3 Bft) 97,83 %
28.06.2020 10:58 17,7 C 18,9 C 17,2 C 78 % 1013,7 hPa 0,0 l/m 0 min 0 min 267 W/m 19,3 km/h (3 Bft) 100,00 %
28.06.2020 11:00 17,8 C 18,3 C 17,2 C 77 % 1013,7 hPa 0,0 l/m 0 min 0 min 263 W/m 19,3 km/h (3 Bft) 97,87 %
28.06.2020 11:02 17,8 C 18,3 C 17,2 C 76 % 1013,8 hPa 0,0 l/m 0 min 0 min 244 W/m 16,1 km/h (3 Bft) 95,74 %
28.06.2020 11:04 17,8 C 18,3 C 17,2 C 76 % 1013,8 hPa 0,0 l/m 0 min 0 min 206 W/m 12,9 km/h (3 Bft) 97,87 %
28.06.2020 11:06 17,8 C 18,3 C 17,2 C 76 % 1013,8 hPa 0,0 l/m 0 min 0 min 165 W/m 9,7 km/h (2 Bft) 100,00 %
28.06.2020 11:08 17,8 C 17,8 C 17,2 C 75 % 1013,9 hPa 0,0 l/m 0 min 0 min 135 W/m 19,3 km/h (3 Bft) 100,00 %
28.06.2020 11:10 17,8 C 17,8 C 16,7 C 76 % 1013,9 hPa 0,0 l/m 0 min 0 min 135 W/m 3,2 km/h (1 Bft) 100,00 %
28.06.2020 11:12 17,9 C 17,8 C 16,7 C 76 % 1013,9 hPa 0,0 l/m 0 min 0 min 172 W/m 16,1 km/h (3 Bft) 95,74 %
28.06.2020 11:14 17,9 C 17,8 C 16,7 C 76 % 1013,8 hPa 0,0 l/m 0 min 0 min 216 W/m 12,9 km/h (3 Bft) 95,65 %
28.06.2020 11:16 17,9 C 18,3 C 17,2 C 76 % 1013,8 hPa 0,0 l/m 0 min 0 min 249 W/m 19,3 km/h (3 Bft) 97,87 %
28.06.2020 11:18 17,9 C 18,3 C 17,2 C 76 % 1014,0 hPa 0,0 l/m 0 min 0 min 273 W/m 22,5 km/h (4 Bft) 97,87 %
28.06.2020 11:20 17,9 C 18,9 C 17,2 C 76 % 1013,9 hPa 0,0 l/m 0 min 0 min 296 W/m 25,7 km/h (4 Bft) 97,87 %
28.06.2020 11:22 18,0 C 18,9 C 17,8 C 76 % 1013,9 hPa 0,0 l/m 0 min 0 min 366 W/m 12,9 km/h (3 Bft) 97,87 %
28.06.2020 11:24 18,1 C 20,0 C 17,8 C 76 % 1013,9 hPa 0,0 l/m 0 min 0 min 398 W/m 12,9 km/h (3 Bft) 95,74 %
28.06.2020 11:26 18,2 C 20,0 C 18,3 C 76 % 1013,9 hPa 0,0 l/m 2 min 0 min 504 W/m 16,1 km/h (3 Bft) 95,65 %
28.06.2020 11:28 18,3 C 20,6 C 18,3 C 76 % 1013,9 hPa 0,0 l/m 2 min 0 min 523 W/m 22,5 km/h (4 Bft) 95,74 %
28.06.2020 11:30 18,4 C 20,6 C 18,9 C 75 % 1013,9 hPa 0,0 l/m 2 min 0 min 518 W/m 16,1 km/h (3 Bft) 93,62 %
28.06.2020 11:32 18,4 C 20,6 C 18,9 C 75 % 1013,9 hPa 0,0 l/m 2 min 0 min 452 W/m 19,3 km/h (3 Bft) 95,74 %
28.06.2020 11:34 18,6 C 21,1 C 18,9 C 76 % 1013,9 hPa 0,0 l/m 2 min 0 min 427 W/m 19,3 km/h (3 Bft) 95,74 %
28.06.2020 11:36 18,7 C 21,1 C 18,9 C 76 % 1013,9 hPa 0,0 l/m 2 min 0 min 469 W/m 22,5 km/h (4 Bft) 93,62 %
28.06.2020 11:38 18,7 C 22,2 C 19,4 C 75 % 1014,0 hPa 0,0 l/m 2 min 0 min 543 W/m 9,7 km/h (2 Bft) 95,65 %
28.06.2020 11:40 18,8 C 23,3 C 19,4 C 75 % 1013,9 hPa 0,0 l/m 2 min 0 min 545 W/m 9,7 km/h (2 Bft) 95,74 %
28.06.2020 11:42 18,9 C 22,8 C 20,0 C 76 % 1014,0 hPa 0,0 l/m 2 min 0 min 527 W/m 9,7 km/h (2 Bft) 95,74 %
28.06.2020 11:44 19,1 C 22,8 C 20,0 C 75 % 1014,1 hPa 0,0 l/m 0 min 0 min 407 W/m 16,1 km/h (3 Bft) 93,62 %
28.06.2020 11:46 19,2 C 22,8 C 20,0 C 75 % 1014,1 hPa 0,0 l/m 2 min 0 min 452 W/m 19,3 km/h (3 Bft) 93,62 %
28.06.2020 11:48 19,3 C 21,7 C 19,4 C 74 % 1014,1 hPa 0,0 l/m 2 min 0 min 429 W/m 19,3 km/h (3 Bft) 93,48 %
28.06.2020 11:50 19,3 C 21,1 C 19,4 C 73 % 1014,2 hPa 0,0 l/m 0 min 0 min 379 W/m 12,9 km/h (3 Bft) 93,62 %
28.06.2020 11:52 19,4 C 21,1 C 19,4 C 72 % 1014,1 hPa 0,0 l/m 0 min 0 min 358 W/m 22,5 km/h (4 Bft) 95,74 %
28.06.2020 11:54 19,4 C 20,6 C 18,9 C 71 % 1014,2 hPa 0,0 l/m 0 min 0 min 361 W/m 12,9 km/h (3 Bft) 95,74 %
28.06.2020 11:56 19,4 C 20,6 C 18,9 C 72 % 1014,2 hPa 0,0 l/m 0 min 0 min 331 W/m 16,1 km/h (3 Bft) 95,74 %
28.06.2020 11:58 19,5 C 20,6 C 18,9 C 72 % 1014,2 hPa 0,0 l/m 0 min 0 min 339 W/m 19,3 km/h (3 Bft) 95,74 %
28.06.2020 12:00 19,4 C 20,6 C 18,9 C 70 % 1014,1 hPa 0,0 l/m 0 min 0 min 364 W/m 16,1 km/h (3 Bft) 95,74 %
28.06.2020 12:02 19,5 C 21,7 C 19,4 C 70 % 1014,2 hPa 0,0 l/m 2 min 0 min 534 W/m 6,4 km/h (2 Bft) 93,62 %
28.06.2020 12:04 19,6 C 21,1 C 19,4 C 71 % 1014,2 hPa 0,0 l/m 0 min 0 min 410 W/m 9,7 km/h (2 Bft) 95,74 %
28.06.2020 12:08 19,7 C 20,6 C 19,4 C 70 % 1014,2 hPa 0,2 l/m 0 min 0 min 349 W/m 19,3 km/h (3 Bft) 97,87 %
28.06.2020 12:10 19,7 C 20,6 C 19,4 C 70 % 1014,4 hPa 0,0 l/m 0 min 0 min 326 W/m 12,9 km/h (3 Bft) 97,87 %
28.06.2020 12:12 19,6 C 20,0 C 18,9 C 69 % 1014,3 hPa 0,0 l/m 0 min 0 min 313 W/m 19,3 km/h (3 Bft) 95,65 %
28.06.2020 12:14 19,6 C 20,0 C 18,9 C 69 % 1014,3 hPa 0,0 l/m 0 min 0 min 293 W/m 16,1 km/h (3 Bft) 97,87 %
28.06.2020 12:16 19,6 C 19,4 C 18,9 C 69 % 1014,4 hPa 0,0 l/m 0 min 0 min 247 W/m 9,7 km/h (2 Bft) 97,87 %
28.06.2020 12:18 19,5 C 19,4 C 18,9 C 69 % 1014,3 hPa 0,0 l/m 0 min 0 min 223 W/m 16,1 km/h (3 Bft) 100,00 %
28.06.2020 12:20 19,4 C 18,9 C 18,3 C 69 % 1014,3 hPa 0,0 l/m 0 min 0 min 238 W/m 12,9 km/h (3 Bft) 100,00 %
28.06.2020 12:22 19,4 C 19,4 C 18,3 C 70 % 1014,3 hPa 0,0 l/m 0 min 0 min 297 W/m 6,4 km/h (2 Bft) 100,00 %
28.06.2020 12:24 19,3 C 20,0 C 18,9 C 70 % 1014,3 hPa 0,0 l/m 0 min 0 min 355 W/m 6,4 km/h (2 Bft) 97,83 %
28.06.2020 12:26 19,3 C 20,0 C 18,9 C 70 % 1014,3 hPa 0,0 l/m 0 min 0 min 309 W/m 6,4 km/h (2 Bft) 100,00 %
28.06.2020 12:28 19,3 C 20,6 C 18,9 C 71 % 1014,2 hPa 0,0 l/m 0 min 0 min 311 W/m 6,4 km/h (2 Bft) 97,87 %
28.06.2020 12:30 19,4 C 20,6 C 18,9 C 71 % 1014,3 hPa 0,0 l/m 0 min 0 min 348 W/m 9,7 km/h (2 Bft) 97,87 %
28.06.2020 12:32 19,4 C 21,1 C 18,9 C 71 % 1014,2 hPa 0,0 l/m 0 min 0 min 390 W/m 9,7 km/h (2 Bft) 97,92 %
28.06.2020 12:34 19,4 C 21,1 C 19,4 C 71 % 1014,2 hPa 0,0 l/m 0 min 0 min 349 W/m 19,3 km/h (3 Bft) 95,74 %
28.06.2020 12:36 19,4 C 20,0 C 18,9 C 69 % 1014,2 hPa 0,0 l/m 0 min 0 min 323 W/m 25,7 km/h (4 Bft) 97,83 %
28.06.2020 12:38 19,4 C 20,6 C 18,9 C 69 % 1014,2 hPa 0,0 l/m 0 min 0 min 362 W/m 16,1 km/h (3 Bft) 97,87 %
28.06.2020 12:40 19,4 C 20,0 C 18,9 C 69 % 1014,2 hPa 0,0 l/m 0 min 0 min 367 W/m 29,0 km/h (5 Bft) 97,87 %
28.06.2020 12:42 19,4 C 20,6 C 18,9 C 69 % 1014,2 hPa 0,0 l/m 0 min 0 min 390 W/m 12,9 km/h (3 Bft) 97,87 %
28.06.2020 12:44 19,5 C 22,8 C 20,0 C 70 % 1014,2 hPa 0,0 l/m 2 min 0 min 493 W/m 12,9 km/h (3 Bft) 95,74 %
28.06.2020 12:46 19,6 C 22,8 C 20,0 C 70 % 1014,3 hPa 0,0 l/m 2 min 0 min 492 W/m 25,7 km/h (4 Bft) 97,87 %
28.06.2020 12:48 19,7 C 22,2 C 20,0 C 69 % 1014,3 hPa 0,0 l/m 2 min 0 min 480 W/m 32,2 km/h (5 Bft) 97,83 %
28.06.2020 12:50 19,8 C 23,3 C 20,6 C 70 % 1014,2 hPa 0,0 l/m 2 min 0 min 486 W/m 12,9 km/h (3 Bft) 95,74 %
28.06.2020 12:52 19,8 C 22,8 C 20,6 C 70 % 1014,2 hPa 0,0 l/m 0 min 0 min 417 W/m 12,9 km/h (3 Bft) 97,87 %
28.06.2020 12:54 19,9 C 22,8 C 20,6 C 70 % 1014,2 hPa 0,0 l/m 2 min 0 min 464 W/m 9,7 km/h (2 Bft) 97,87 %
28.06.2020 12:56 20,1 C 22,2 C 20,0 C 70 % 1014,3 hPa 0,0 l/m 0 min 0 min 420 W/m 16,1 km/h (3 Bft) 97,87 %
28.06.2020 12:58 20,1 C 22,2 C 20,0 C 69 % 1014,3 hPa 0,0 l/m 2 min 0 min 464 W/m 12,9 km/h (3 Bft) 97,83 %
28.06.2020 13:00 20,1 C 21,7 C 20,0 C 69 % 1014,3 hPa 0,0 l/m 0 min 0 min 387 W/m 25,7 km/h (4 Bft) 97,87 %
28.06.2020 13:02 20,2 C 21,7 C 20,0 C 69 % 1014,2 hPa 0,0 l/m 0 min 0 min 379 W/m 16,1 km/h (3 Bft) 97,87 %
28.06.2020 13:04 20,2 C 21,7 C 20,0 C 69 % 1014,2 hPa 0,0 l/m 0 min 0 min 382 W/m 19,3 km/h (3 Bft) 97,87 %
28.06.2020 13:06 20,2 C 21,1 C 19,4 C 68 % 1014,2 hPa 0,0 l/m 0 min 0 min 421 W/m 22,5 km/h (4 Bft) 97,87 %
28.06.2020 13:08 20,2 C 21,7 C 19,4 C 68 % 1014,3 hPa 0,0 l/m 2 min 0 min 488 W/m 22,5 km/h (4 Bft) 97,87 %
28.06.2020 13:10 20,3 C 22,8 C 20,0 C 68 % 1014,2 hPa 0,0 l/m 2 min 0 min 578 W/m 22,5 km/h (4 Bft) 97,83 %
28.06.2020 13:13 20,3 C 22,8 C 20,6 C 68 % 1014,2 hPa 0,0 l/m 3 min 0 min 613 W/m 29,0 km/h (5 Bft) 98,51 %
28.06.2020 13:14 20,4 C 23,3 C 20,6 C 68 % 1014,2 hPa 0,0 l/m 1 min 0 min 619 W/m 16,1 km/h (3 Bft) 95,65 %
28.06.2020 13:16 20,4 C 23,3 C 20,6 C 68 % 1014,1 hPa 0,0 l/m 2 min 0 min 684 W/m 19,3 km/h (3 Bft) 97,87 %
28.06.2020 13:18 20,5 C 22,2 C 20,6 C 68 % 1014,1 hPa 0,0 l/m 2 min 0 min 593 W/m 29,0 km/h (5 Bft) 97,87 %
28.06.2020 13:20 20,6 C 21,7 C 20,0 C 68 % 1014,2 hPa 0,0 l/m 2 min 0 min 473 W/m 25,7 km/h (4 Bft) 100,00 %
28.06.2020 13:22 20,6 C 21,1 C 20,0 C 68 % 1014,3 hPa 0,0 l/m 0 min 0 min 354 W/m 29,0 km/h (5 Bft) 100,00 %
28.06.2020 13:24 20,5 C 20,6 C 19,4 C 67 % 1014,2 hPa 0,0 l/m 0 min 0 min 312 W/m 19,3 km/h (3 Bft) 97,87 %
28.06.2020 13:26 20,4 C 21,1 C 19,4 C 68 % 1014,2 hPa 0,0 l/m 0 min 0 min 330 W/m 12,9 km/h (3 Bft) 100,00 %
28.06.2020 13:28 20,4 C 22,2 C 20,0 C 69 % 1014,2 hPa 0,0 l/m 0 min 0 min 360 W/m 12,9 km/h (3 Bft) 100,00 %
28.06.2020 13:30 20,4 C 21,7 C 20,0 C 69 % 1014,2 hPa 0,0 l/m 0 min 0 min 361 W/m 16,1 km/h (3 Bft) 100,00 %
28.06.2020 13:32 20,5 C 22,2 C 20,0 C 70 % 1014,2 hPa 0,0 l/m 0 min 0 min 345 W/m 6,4 km/h (2 Bft) 100,00 %
28.06.2020 13:34 20,6 C 22,8 C 20,6 C 70 % 1014,3 hPa 0,0 l/m 0 min 0 min 345 W/m 16,1 km/h (3 Bft) 97,83 %
28.06.2020 13:36 20,6 C 22,2 C 20,6 C 69 % 1014,2 hPa 0,0 l/m 0 min 0 min 434 W/m 9,7 km/h (2 Bft) 100,00 %
28.06.2020 13:38 20,6 C 21,7 C 20,6 C 69 % 1014,3 hPa 0,0 l/m 0 min 0 min 385 W/m 22,5 km/h (4 Bft) 97,87 %
28.06.2020 13:40 20,6 C 21,1 C 20,0 C 68 % 1014,2 hPa 0,0 l/m 0 min 0 min 309 W/m 12,9 km/h (3 Bft) 97,87 %
28.06.2020 13:42 20,6 C 20,6 C 20,0 C 69 % 1014,1 hPa 0,0 l/m 0 min 0 min 272 W/m 19,3 km/h (3 Bft) 100,00 %
28.06.2020 13:44 20,5 C 20,6 C 19,4 C 69 % 1014,2 hPa 0,0 l/m 0 min 0 min 247 W/m 6,4 km/h (2 Bft) 97,87 %
28.06.2020 13:46 20,5 C 20,6 C 19,4 C 70 % 1014,2 hPa 0,0 l/m 0 min 0 min 225 W/m 6,4 km/h (2 Bft) 97,83 %
28.06.2020 13:48 20,4 C 20,0 C 19,4 C 70 % 1014,2 hPa 0,0 l/m 0 min 0 min 162 W/m 6,4 km/h (2 Bft) 97,87 %
28.06.2020 13:50 20,4 C 20,0 C 19,4 C 70 % 1014,2 hPa 0,0 l/m 0 min 0 min 100 W/m 3,2 km/h (1 Bft) 95,74 %
28.06.2020 13:52 20,3 C 18,9 C 18,9 C 70 % 1014,3 hPa 0,0 l/m 0 min 2 min 95 W/m 16,1 km/h (3 Bft) 95,74 %
28.06.2020 13:54 20,2 C 18,3 C 18,9 C 71 % 1014,3 hPa 0,0 l/m 0 min 2 min 85 W/m 9,7 km/h (2 Bft) 97,87 %
28.06.2020 13:56 20,2 C 17,8 C 18,3 C 74 % 1014,4 hPa 0,0 l/m 0 min 2 min 154 W/m 6,4 km/h (2 Bft) 95,74 %
28.06.2020 13:58 20,1 C 17,8 C 18,3 C 76 % 1014,3 hPa 0,0 l/m 0 min 2 min 187 W/m 3,2 km/h (1 Bft) 97,83 %
28.06.2020 14:00 19,9 C 18,3 C 18,3 C 76 % 1014,2 hPa 0,0 l/m 0 min 0 min 260 W/m 6,4 km/h (2 Bft) 97,87 %
28.06.2020 14:02 19,8 C 19,4 C 18,3 C 76 % 1014,1 hPa 0,0 l/m 0 min 0 min 382 W/m 6,4 km/h (2 Bft) 97,92 %
28.06.2020 14:04 19,8 C 21,1 C 18,9 C 76 % 1014,3 hPa 0,0 l/m 0 min 0 min 397 W/m 6,4 km/h (2 Bft) 97,87 %
28.06.2020 14:06 19,8 C 22,8 C 20,0 C 77 % 1014,3 hPa 0,0 l/m 0 min 0 min 413 W/m 3,2 km/h (1 Bft) 95,74 %
28.06.2020 14:08 19,8 C 23,3 C 20,0 C 76 % 1014,3 hPa 0,0 l/m 2 min 0 min 770 W/m 16,1 km/h (3 Bft) 97,87 %
28.06.2020 14:10 19,9 C 24,4 C 20,6 C 78 % 1014,3 hPa 0,0 l/m 2 min 0 min 769 W/m 6,4 km/h (2 Bft) 97,83 %
28.06.2020 14:12 20,1 C 25,0 C 20,6 C 77 % 1014,3 hPa 0,0 l/m 2 min 0 min 725 W/m 6,4 km/h (2 Bft) 95,74 %
28.06.2020 14:14 20,3 C 25,0 C 21,1 C 77 % 1014,3 hPa 0,0 l/m 2 min 0 min 776 W/m 12,9 km/h (3 Bft) 97,87 %
28.06.2020 14:16 20,4 C 25,0 C 21,1 C 75 % 1014,2 hPa 0,0 l/m 2 min 0 min 782 W/m 6,4 km/h (2 Bft) 95,74 %
28.06.2020 14:18 20,5 C 25,0 C 21,1 C 74 % 1014,2 hPa 0,0 l/m 2 min 0 min 798 W/m 12,9 km/h (3 Bft) 97,87 %
28.06.2020 14:20 20,6 C 25,0 C 21,1 C 73 % 1014,2 hPa 0,0 l/m 2 min 0 min 710 W/m 16,1 km/h (3 Bft) 97,87 %
28.06.2020 14:22 20,7 C 24,4 C 21,1 C 72 % 1014,2 hPa 0,0 l/m 2 min 0 min 661 W/m 9,7 km/h (2 Bft) 95,65 %
28.06.2020 14:24 20,8 C 23,9 C 21,1 C 72 % 1014,2 hPa 0,0 l/m 2 min 0 min 586 W/m 19,3 km/h (3 Bft) 97,87 %
28.06.2020 14:26 20,9 C 23,9 C 21,1 C 70 % 1014,1 hPa 0,0 l/m 0 min 0 min 422 W/m 16,1 km/h (3 Bft) 95,74 %
28.06.2020 14:28 20,9 C 23,9 C 21,1 C 68 % 1014,1 hPa 0,0 l/m 2 min 0 min 678 W/m 12,9 km/h (3 Bft) 97,87 %
28.06.2020 14:30 21,1 C 25,0 C 21,1 C 69 % 1014,1 hPa 0,0 l/m 2 min 0 min 719 W/m 16,1 km/h (3 Bft) 97,87 %
28.06.2020 14:32 21,1 C 25,0 C 21,1 C 67 % 1014,1 hPa 0,0 l/m 2 min 0 min 729 W/m 9,7 km/h (2 Bft) 97,83 %
28.06.2020 14:34 21,2 C 25,0 C 21,7 C 67 % 1014,1 hPa 0,0 l/m 2 min 0 min 745 W/m 6,4 km/h (2 Bft) 95,74 %
28.06.2020 14:36 21,3 C 25,0 C 21,7 C 67 % 1014,1 hPa 0,0 l/m 2 min 0 min 744 W/m 25,7 km/h (4 Bft) 93,75 %
28.06.2020 14:38 21,4 C 25,0 C 21,1 C 65 % 1014,0 hPa 0,0 l/m 2 min 0 min 772 W/m 19,3 km/h (3 Bft) 97,87 %
28.06.2020 14:40 21,5 C 25,0 C 21,1 C 66 % 1014,1 hPa 0,0 l/m 2 min 0 min 770 W/m 19,3 km/h (3 Bft) 97,87 %
28.06.2020 14:42 21,5 C 23,9 C 21,1 C 63 % 1014,1 hPa 0,0 l/m 2 min 0 min 701 W/m 32,2 km/h (5 Bft) 100,00 %
28.06.2020 14:44 21,5 C 23,3 C 21,1 C 63 % 1014,2 hPa 0,0 l/m 2 min 0 min 699 W/m 25,7 km/h (4 Bft) 95,65 %
28.06.2020 14:46 21,6 C 23,3 C 21,1 C 63 % 1014,1 hPa 0,0 l/m 2 min 0 min 706 W/m 25,7 km/h (4 Bft) 95,74 %
28.06.2020 14:48 21,6 C 23,3 C 21,1 C 64 % 1014,0 hPa 0,0 l/m 2 min 0 min 570 W/m 9,7 km/h (2 Bft) 100,00 %
28.06.2020 14:50 21,6 C 24,4 C 21,7 C 65 % 1014,0 hPa 0,0 l/m 2 min 0 min 634 W/m 6,4 km/h (2 Bft) 100,00 %
28.06.2020 14:52 21,7 C 24,4 C 21,7 C 65 % 1014,1 hPa 0,0 l/m 2 min 0 min 604 W/m 6,4 km/h (2 Bft) 95,74 %
28.06.2020 14:54 21,7 C 23,9 C 21,7 C 64 % 1014,0 hPa 0,0 l/m 2 min 0 min 502 W/m 16,1 km/h (3 Bft) 97,87 %
28.06.2020 14:56 21,8 C 23,9 C 21,7 C 64 % 1014,0 hPa 0,0 l/m 0 min 0 min 390 W/m 9,7 km/h (2 Bft) 93,48 %
28.06.2020 14:58 21,8 C 23,9 C 21,7 C 62 % 1014,1 hPa 0,0 l/m 2 min 0 min 443 W/m 19,3 km/h (3 Bft) 97,87 %
28.06.2020 15:00 21,8 C 23,9 C 21,7 C 62 % 1014,0 hPa 0,0 l/m 2 min 0 min 465 W/m 9,7 km/h (2 Bft) 97,87 %
28.06.2020 15:02 21,8 C 23,3 C 21,7 C 61 % 1014,1 hPa 0,0 l/m 2 min 0 min 523 W/m 25,7 km/h (4 Bft) 95,74 %
28.06.2020 15:04 21,8 C 23,3 C 21,1 C 61 % 1014,0 hPa 0,0 l/m 2 min 0 min 518 W/m 16,1 km/h (3 Bft) 95,74 %
28.06.2020 15:06 21,8 C 23,3 C 21,1 C 62 % 1014,1 hPa 0,0 l/m 2 min 0 min 539 W/m 16,1 km/h (3 Bft) 97,83 %
28.06.2020 15:08 21,8 C 23,3 C 21,1 C 61 % 1014,0 hPa 0,0 l/m 2 min 0 min 515 W/m 12,9 km/h (3 Bft) 97,87 %
28.06.2020 15:10 21,7 C 22,8 C 21,1 C 61 % 1014,2 hPa 0,0 l/m 2 min 0 min 459 W/m 22,5 km/h (4 Bft) 97,87 %
28.06.2020 15:12 21,7 C 23,3 C 21,1 C 61 % 1014,0 hPa 0,0 l/m 2 min 0 min 551 W/m 16,1 km/h (3 Bft) 95,74 %
28.06.2020 15:14 21,7 C 23,3 C 21,1 C 61 % 1014,0 hPa 0,0 l/m 2 min 0 min 515 W/m 22,5 km/h (4 Bft) 97,37 %
28.06.2020 15:16 21,7 C 23,3 C 21,1 C 61 % 1014,0 hPa 0,0 l/m 0 min 0 min 379 W/m 12,9 km/h (3 Bft) 97,87 %
28.06.2020 15:18 21,7 C 22,8 C 21,1 C 62 % 1014,0 hPa 0,0 l/m 2 min 0 min 519 W/m 29,0 km/h (5 Bft) 97,87 %
28.06.2020 15:20 21,7 C 23,3 C 21,1 C 61 % 1013,9 hPa 0,0 l/m 2 min 0 min 500 W/m 19,3 km/h (3 Bft) 97,87 %
28.06.2020 15:22 21,7 C 23,3 C 21,1 C 62 % 1013,8 hPa 0,0 l/m 2 min 0 min 525 W/m 16,1 km/h (3 Bft) 97,87 %
28.06.2020 15:24 21,7 C 23,3 C 21,1 C 62 % 1013,9 hPa 0,0 l/m 2 min 0 min 471 W/m 12,9 km/h (3 Bft) 95,65 %
28.06.2020 15:26 21,7 C 23,3 C 21,1 C 63 % 1013,8 hPa 0,0 l/m 2 min 0 min 471 W/m 12,9 km/h (3 Bft) 95,74 %
28.06.2020 15:28 21,7 C 23,3 C 21,1 C 63 % 1013,9 hPa 0,0 l/m 2 min 0 min 512 W/m 6,4 km/h (2 Bft) 95,74 %
28.06.2020 15:30 21,7 C 22,8 C 21,1 C 63 % 1013,9 hPa 0,0 l/m 2 min 0 min 440 W/m 25,7 km/h (4 Bft) 93,62 %
28.06.2020 15:32 21,7 C 22,2 C 21,1 C 61 % 1013,9 hPa 0,0 l/m 0 min 0 min 399 W/m 12,9 km/h (3 Bft) 95,74 %
28.06.2020 15:34 21,6 C 22,2 C 21,1 C 60 % 1013,8 hPa 0,0 l/m 2 min 0 min 464 W/m 22,5 km/h (4 Bft) 95,65 %
28.06.2020 15:36 21,6 C 22,2 C 21,1 C 60 % 1013,9 hPa 0,0 l/m 2 min 0 min 485 W/m 35,4 km/h (5 Bft) 95,74 %
28.06.2020 15:38 21,6 C 22,2 C 21,1 C 61 % 1013,9 hPa 0,0 l/m 0 min 0 min 377 W/m 12,9 km/h (3 Bft) 93,62 %
28.06.2020 15:40 21,6 C 22,2 C 21,1 C 61 % 1013,9 hPa 0,0 l/m 2 min 0 min 435 W/m 19,3 km/h (3 Bft) 95,74 %
28.06.2020 15:42 21,6 C 23,3 C 21,1 C 62 % 1013,9 hPa 0,0 l/m 2 min 0 min 446 W/m 16,1 km/h (3 Bft) 95,65 %
28.06.2020 15:44 21,6 C 23,3 C 21,1 C 61 % 1013,9 hPa 0,0 l/m 2 min 0 min 446 W/m 19,3 km/h (3 Bft) 95,74 %
28.06.2020 15:46 21,6 C 22,8 C 21,1 C 61 % 1013,8 hPa 0,0 l/m 0 min 0 min 330 W/m 19,3 km/h (3 Bft) 95,65 %
28.06.2020 15:48 21,7 C 24,4 C 21,1 C 62 % 1013,8 hPa 0,0 l/m 0 min 0 min 346 W/m 6,4 km/h (2 Bft) 95,74 %
28.06.2020 15:50 21,8 C 23,9 C 21,1 C 63 % 1013,7 hPa 0,0 l/m 0 min 0 min 367 W/m 9,7 km/h (2 Bft) 95,74 %
28.06.2020 15:52 21,8 C 25,0 C 21,1 C 62 % 1013,8 hPa 0,0 l/m 0 min 0 min 401 W/m 9,7 km/h (2 Bft) 95,74 %
28.06.2020 15:54 21,9 C 24,4 C 21,1 C 62 % 1013,8 hPa 0,0 l/m 0 min 0 min 394 W/m 12,9 km/h (3 Bft) 95,74 %
28.06.2020 15:56 21,9 C 23,3 C 21,1 C 60 % 1013,7 hPa 0,0 l/m 2 min 0 min 420 W/m 32,2 km/h (5 Bft) 91,49 %
28.06.2020 15:58 21,9 C 23,9 C 21,1 C 60 % 1013,8 hPa 0,0 l/m 2 min 0 min 566 W/m 19,3 km/h (3 Bft) 97,83 %
28.06.2020 16:00 22,0 C 25,0 C 21,1 C 60 % 1013,7 hPa 0,0 l/m 2 min 0 min 622 W/m 9,7 km/h (2 Bft) 95,74 %
28.06.2020 16:02 22,1 C 25,6 C 21,7 C 62 % 1013,7 hPa 0,0 l/m 2 min 0 min 782 W/m 6,4 km/h (2 Bft) 97,87 %
28.06.2020 16:04 22,1 C 26,1 C 21,7 C 62 % 1013,7 hPa 0,0 l/m 2 min 0 min 891 W/m 19,3 km/h (3 Bft) 97,87 %
28.06.2020 16:06 22,2 C 25,0 C 21,7 C 61 % 1013,8 hPa 0,0 l/m 2 min 0 min 958 W/m 12,9 km/h (3 Bft) 95,74 %
28.06.2020 16:08 22,3 C 25,6 C 21,7 C 61 % 1013,7 hPa 0,0 l/m 2 min 0 min 958 W/m 16,1 km/h (3 Bft) 97,87 %
28.06.2020 16:10 22,4 C 24,4 C 21,7 C 60 % 1013,8 hPa 0,0 l/m 2 min 0 min 958 W/m 12,9 km/h (3 Bft) 97,83 %
28.06.2020 16:12 22,4 C 24,4 C 21,7 C 59 % 1013,7 hPa 0,0 l/m 2 min 0 min 476 W/m 12,9 km/h (3 Bft) 97,87 %
28.06.2020 16:14 22,4 C 22,8 C 21,7 C 59 % 1013,7 hPa 0,0 l/m 0 min 0 min 227 W/m 12,9 km/h (3 Bft) 95,74 %
28.06.2020 16:16 22,4 C 22,2 C 21,1 C 58 % 1013,7 hPa 0,0 l/m 0 min 0 min 174 W/m 19,3 km/h (3 Bft) 97,87 %
28.06.2020 16:18 22,3 C 21,7 C 21,1 C 59 % 1013,8 hPa 0,0 l/m 0 min 0 min 158 W/m 19,3 km/h (3 Bft) 95,74 %
28.06.2020 16:20 22,3 C 21,7 C 21,1 C 60 % 1013,8 hPa 0,0 l/m 0 min 0 min 155 W/m 12,9 km/h (3 Bft) 95,74 %
28.06.2020 16:22 22,2 C 21,7 C 20,6 C 60 % 1013,8 hPa 0,0 l/m 0 min 0 min 193 W/m 9,7 km/h (2 Bft) 98,11 %
28.06.2020 16:24 22,1 C 23,3 C 21,1 C 60 % 1013,6 hPa 0,0 l/m 0 min 0 min 349 W/m 6,4 km/h (2 Bft) 97,87 %
28.06.2020 16:26 22,1 C 23,3 C 21,1 C 61 % 1013,6 hPa 0,0 l/m 0 min 0 min 332 W/m 3,2 km/h (1 Bft) 95,74 %
28.06.2020 16:28 22,1 C 23,3 C 21,1 C 60 % 1013,6 hPa 0,0 l/m 0 min 0 min 359 W/m 6,4 km/h (2 Bft) 95,74 %
28.06.2020 16:30 22,1 C 23,3 C 21,1 C 60 % 1013,8 hPa 0,0 l/m 0 min 0 min 258 W/m 12,9 km/h (3 Bft) 95,65 %
28.06.2020 16:32 22,1 C 22,8 C 21,1 C 59 % 1013,8 hPa 0,0 l/m 0 min 0 min 228 W/m 25,7 km/h (4 Bft) 97,87 %
28.06.2020 16:34 22,1 C 22,2 C 21,1 C 59 % 1013,7 hPa 0,0 l/m 0 min 0 min 232 W/m 25,7 km/h (4 Bft) 97,87 %
28.06.2020 16:36 22,0 C 22,2 C 21,1 C 58 % 1013,7 hPa 0,0 l/m 0 min 0 min 251 W/m 9,7 km/h (2 Bft) 97,87 %
28.06.2020 16:38 21,9 C 22,2 C 21,1 C 57 % 1013,7 hPa 0,0 l/m 0 min 0 min 324 W/m 12,9 km/h (3 Bft) 95,74 %
28.06.2020 16:40 21,9 C 22,8 C 21,1 C 58 % 1013,7 hPa 0,0 l/m 0 min 0 min 322 W/m 22,5 km/h (4 Bft) 93,62 %
28.06.2020 16:42 21,9 C 22,8 C 21,1 C 58 % 1013,6 hPa 0,0 l/m 0 min 0 min 345 W/m 22,5 km/h (4 Bft) 97,83 %
28.06.2020 16:44 21,9 C 22,8 C 21,1 C 58 % 1013,8 hPa 0,0 l/m 0 min 0 min 301 W/m 12,9 km/h (3 Bft) 95,74 %
28.06.2020 16:46 22,0 C 22,8 C 21,1 C 59 % 1013,7 hPa 0,0 l/m 0 min 0 min 249 W/m 9,7 km/h (2 Bft) 97,87 %
28.06.2020 16:48 21,9 C 22,2 C 21,1 C 59 % 1013,8 hPa 0,0 l/m 0 min 0 min 238 W/m 12,9 km/h (3 Bft) 95,74 %
28.06.2020 16:50 21,9 C 22,2 C 21,1 C 59 % 1013,6 hPa 0,0 l/m 0 min 0 min 243 W/m 19,3 km/h (3 Bft) 95,74 %
28.06.2020 16:52 21,9 C 22,2 C 21,1 C 59 % 1013,6 hPa 0,0 l/m 0 min 0 min 249 W/m 12,9 km/h (3 Bft) 97,87 %
28.06.2020 16:54 21,9 C 22,2 C 21,1 C 60 % 1013,6 hPa 0,0 l/m 0 min 0 min 220 W/m 6,4 km/h (2 Bft) 97,83 %
28.06.2020 16:56 21,9 C 22,2 C 21,1 C 59 % 1013,6 hPa 0,0 l/m 0 min 0 min 205 W/m 6,4 km/h (2 Bft) 97,87 %
28.06.2020 16:58 21,9 C 23,3 C 21,1 C 59 % 1013,7 hPa 0,0 l/m 0 min 0 min 267 W/m 6,4 km/h (2 Bft) 97,87 %
28.06.2020 17:00 22,0 C 24,4 C 21,1 C 60 % 1013,7 hPa 0,0 l/m 0 min 0 min 267 W/m 12,9 km/h (3 Bft) 97,87 %
28.06.2020 17:02 22,1 C 25,0 C 21,7 C 59 % 1013,6 hPa 0,0 l/m 2 min 0 min 390 W/m 12,9 km/h (3 Bft) 100,00 %
28.06.2020 17:04 22,1 C 24,4 C 21,7 C 56 % 1013,6 hPa 0,0 l/m 2 min 0 min 522 W/m 38,6 km/h (5 Bft) 100,00 %
28.06.2020 17:06 22,2 C 24,4 C 21,7 C 57 % 1013,6 hPa 0,0 l/m 2 min 0 min 609 W/m 12,9 km/h (3 Bft) 100,00 %
28.06.2020 17:08 22,3 C 25,0 C 21,7 C 57 % 1013,6 hPa 0,0 l/m 2 min 0 min 628 W/m 9,7 km/h (2 Bft) 97,87 %
28.06.2020 17:10 22,4 C 25,6 C 21,7 C 57 % 1013,7 hPa 0,0 l/m 2 min 0 min 633 W/m 19,3 km/h (3 Bft) 100,00 %
28.06.2020 17:12 22,5 C 25,0 C 21,7 C 56 % 1013,7 hPa 0,0 l/m 2 min 0 min 677 W/m 22,5 km/h (4 Bft) 100,00 %
28.06.2020 17:14 22,6 C 26,7 C 22,2 C 56 % 1013,5 hPa 0,0 l/m 2 min 0 min 776 W/m 9,7 km/h (2 Bft) 97,87 %
28.06.2020 17:16 22,8 C 27,2 C 22,2 C 57 % 1013,5 hPa 0,0 l/m 2 min 0 min 833 W/m 6,4 km/h (2 Bft) 100,00 %
28.06.2020 17:18 23,0 C 27,2 C 22,2 C 56 % 1013,6 hPa 0,0 l/m 2 min 0 min 747 W/m 12,9 km/h (3 Bft) 97,87 %
28.06.2020 17:20 23,1 C 27,2 C 22,2 C 55 % 1013,5 hPa 0,0 l/m 2 min 0 min 649 W/m 12,9 km/h (3 Bft) 100,00 %
28.06.2020 17:22 23,3 C 27,2 C 22,2 C 56 % 1013,4 hPa 0,0 l/m 2 min 0 min 705 W/m 16,1 km/h (3 Bft) 100,00 %
28.06.2020 17:24 23,4 C 26,1 C 22,2 C 55 % 1013,4 hPa 0,0 l/m 2 min 0 min 722 W/m 16,1 km/h (3 Bft) 100,00 %
28.06.2020 17:26 23,5 C 26,7 C 22,2 C 54 % 1013,4 hPa 0,0 l/m 2 min 0 min 758 W/m 12,9 km/h (3 Bft) 100,00 %
28.06.2020 17:28 23,6 C 27,2 C 22,2 C 53 % 1013,4 hPa 0,0 l/m 2 min 0 min 792 W/m 12,9 km/h (3 Bft) 100,00 %
28.06.2020 17:30 23,7 C 25,0 C 22,2 C 53 % 1013,5 hPa 0,0 l/m 2 min 0 min 567 W/m 12,9 km/h (3 Bft) 100,00 %
28.06.2020 17:32 23,6 C 23,9 C 22,2 C 52 % 1013,5 hPa 0,0 l/m 0 min 0 min 214 W/m 16,1 km/h (3 Bft) 100,00 %
28.06.2020 17:34 23,6 C 23,3 C 21,7 C 53 % 1013,5 hPa 0,0 l/m 0 min 0 min 210 W/m 6,4 km/h (2 Bft) 100,00 %
28.06.2020 17:36 23,6 C 23,3 C 21,7 C 53 % 1013,5 hPa 0,0 l/m 0 min 0 min 215 W/m 9,7 km/h (2 Bft) 100,00 %
28.06.2020 17:38 23,6 C 25,0 C 21,7 C 53 % 1013,5 hPa 0,0 l/m 0 min 0 min 221 W/m 6,4 km/h (2 Bft) 100,00 %
28.06.2020 17:40 23,6 C 25,6 C 21,7 C 54 % 1013,5 hPa 0,0 l/m 0 min 0 min 221 W/m 12,9 km/h (3 Bft) 97,87 %
28.06.2020 17:42 23,6 C 26,7 C 22,2 C 53 % 1013,4 hPa 0,0 l/m 2 min 0 min 617 W/m 12,9 km/h (3 Bft) 100,00 %
28.06.2020 17:44 23,6 C 26,7 C 22,2 C 53 % 1013,4 hPa 0,0 l/m 2 min 0 min 778 W/m 12,9 km/h (3 Bft) 100,00 %
28.06.2020 17:46 23,7 C 26,1 C 22,2 C 53 % 1013,4 hPa 0,0 l/m 2 min 0 min 695 W/m 22,5 km/h (4 Bft) 100,00 %
28.06.2020 17:48 23,7 C 25,6 C 22,2 C 54 % 1013,5 hPa 0,0 l/m 2 min 0 min 468 W/m 16,1 km/h (3 Bft) 100,00 %
28.06.2020 17:50 23,7 C 26,1 C 22,8 C 53 % 1013,5 hPa 0,0 l/m 2 min 0 min 613 W/m 12,9 km/h (3 Bft) 100,00 %
28.06.2020 17:52 23,7 C 24,4 C 22,2 C 52 % 1013,5 hPa 0,0 l/m 2 min 0 min 337 W/m 16,1 km/h (3 Bft) 100,00 %
28.06.2020 17:54 23,7 C 23,9 C 22,2 C 52 % 1013,5 hPa 0,0 l/m 0 min 0 min 194 W/m 12,9 km/h (3 Bft) 100,00 %
28.06.2020 17:56 23,7 C 22,8 C 22,2 C 53 % 1013,5 hPa 0,0 l/m 0 min 0 min 149 W/m 3,2 km/h (1 Bft) 100,00 %
28.06.2020 17:58 23,6 C 22,2 C 21,7 C 52 % 1013,5 hPa 0,0 l/m 0 min 0 min 156 W/m 19,3 km/h (3 Bft) 100,00 %
28.06.2020 18:00 23,5 C 22,2 C 21,7 C 52 % 1013,4 hPa 0,0 l/m 0 min 0 min 162 W/m 9,7 km/h (2 Bft) 100,00 %
28.06.2020 18:02 23,4 C 22,2 C 21,1 C 51 % 1013,4 hPa 0,0 l/m 0 min 0 min 184 W/m 16,1 km/h (3 Bft) 97,92 %
28.06.2020 18:04 23,3 C 22,2 C 21,7 C 52 % 1013,4 hPa 0,0 l/m 0 min 0 min 207 W/m 6,4 km/h (2 Bft) 100,00 %
28.06.2020 18:08 23,2 C 23,3 C 21,7 C 51 % 1013,4 hPa 0,0 l/m 4 min 0 min 372 W/m 16,1 km/h (3 Bft) 97,87 %
28.06.2020 18:10 23,1 C 23,9 C 21,7 C 51 % 1013,4 hPa 0,0 l/m 2 min 0 min 491 W/m 22,5 km/h (4 Bft) 97,87 %
28.06.2020 18:12 23,1 C 24,4 C 21,7 C 51 % 1013,3 hPa 0,0 l/m 2 min 0 min 509 W/m 19,3 km/h (3 Bft) 100,00 %
28.06.2020 18:14 23,1 C 25,0 C 21,7 C 51 % 1013,4 hPa 0,0 l/m 2 min 0 min 592 W/m 22,5 km/h (4 Bft) 100,00 %
28.06.2020 18:16 23,1 C 23,9 C 21,7 C 49 % 1013,4 hPa 0,0 l/m 2 min 0 min 600 W/m 25,7 km/h (4 Bft) 97,83 %
28.06.2020 18:18 23,1 C 25,0 C 21,7 C 50 % 1013,3 hPa 0,0 l/m 2 min 0 min 572 W/m 16,1 km/h (3 Bft) 100,00 %
28.06.2020 18:20 23,2 C 25,6 C 21,7 C 50 % 1013,2 hPa 0,0 l/m 2 min 0 min 592 W/m 12,9 km/h (3 Bft) 97,87 %
28.06.2020 18:22 23,2 C 25,6 C 21,7 C 51 % 1013,3 hPa 0,0 l/m 2 min 0 min 603 W/m 16,1 km/h (3 Bft) 100,00 %
28.06.2020 18:24 23,3 C 23,9 C 21,7 C 50 % 1013,3 hPa 0,0 l/m 0 min 0 min 212 W/m 16,1 km/h (3 Bft) 97,87 %
28.06.2020 18:26 23,3 C 23,9 C 21,7 C 49 % 1013,3 hPa 0,0 l/m 0 min 0 min 166 W/m 6,4 km/h (2 Bft) 95,65 %
28.06.2020 18:28 23,3 C 25,0 C 21,7 C 49 % 1013,3 hPa 0,0 l/m 2 min 0 min 473 W/m 16,1 km/h (3 Bft) 95,74 %
28.06.2020 18:30 23,3 C 25,0 C 21,7 C 49 % 1013,3 hPa 0,0 l/m 2 min 0 min 584 W/m 9,7 km/h (2 Bft) 93,62 %
28.06.2020 18:32 23,4 C 25,6 C 21,7 C 49 % 1013,3 hPa 0,0 l/m 2 min 0 min 558 W/m 16,1 km/h (3 Bft) 95,92 %
28.06.2020 18:34 23,4 C 25,6 C 22,2 C 48 % 1013,3 hPa 0,0 l/m 2 min 0 min 597 W/m 16,1 km/h (3 Bft) 95,74 %
28.06.2020 18:36 23,6 C 25,6 C 22,2 C 49 % 1013,2 hPa 0,0 l/m 2 min 0 min 589 W/m 12,9 km/h (3 Bft) 95,65 %
28.06.2020 18:38 23,6 C 25,6 C 22,2 C 48 % 1013,3 hPa 0,0 l/m 2 min 0 min 529 W/m 12,9 km/h (3 Bft) 95,74 %
28.06.2020 18:40 23,7 C 25,0 C 22,2 C 48 % 1013,3 hPa 0,0 l/m 2 min 0 min 499 W/m 22,5 km/h (4 Bft) 95,74 %
28.06.2020 18:42 23,7 C 25,0 C 22,2 C 47 % 1013,5 hPa 0,0 l/m 2 min 0 min 530 W/m 19,3 km/h (3 Bft) 93,62 %
28.06.2020 18:44 23,7 C 25,0 C 22,2 C 46 % 1013,4 hPa 0,0 l/m 2 min 0 min 536 W/m 19,3 km/h (3 Bft) 95,74 %
28.06.2020 18:46 23,8 C 25,0 C 22,2 C 47 % 1013,2 hPa 0,0 l/m 2 min 0 min 538 W/m 16,1 km/h (3 Bft) 93,62 %
28.06.2020 18:48 23,8 C 25,0 C 22,2 C 46 % 1013,3 hPa 0,0 l/m 2 min 0 min 534 W/m 19,3 km/h (3 Bft) 91,30 %
28.06.2020 18:50 23,9 C 25,0 C 22,2 C 47 % 1013,2 hPa 0,0 l/m 2 min 0 min 523 W/m 6,4 km/h (2 Bft) 91,49 %
28.06.2020 18:52 23,9 C 25,0 C 22,2 C 47 % 1013,1 hPa 0,0 l/m 2 min 0 min 512 W/m 22,5 km/h (4 Bft) 93,62 %
28.06.2020 18:54 23,9 C 25,0 C 22,2 C 47 % 1013,2 hPa 0,0 l/m 2 min 0 min 484 W/m 12,9 km/h (3 Bft) 93,62 %
28.06.2020 18:56 24,0 C 25,0 C 22,2 C 47 % 1013,2 hPa 0,0 l/m 2 min 0 min 484 W/m 19,3 km/h (3 Bft) 93,62 %
28.06.2020 18:58 24,1 C 25,0 C 22,2 C 47 % 1013,2 hPa 0,0 l/m 2 min 0 min 489 W/m 19,3 km/h (3 Bft) 93,62 %
28.06.2020 19:00 24,1 C 25,0 C 22,2 C 48 % 1013,2 hPa 0,0 l/m 2 min 0 min 474 W/m 3,2 km/h (1 Bft) 93,48 %
28.06.2020 19:02 24,1 C 24,4 C 22,2 C 46 % 1013,2 hPa 0,0 l/m 2 min 0 min 440 W/m 16,1 km/h (3 Bft) 91,67 %
28.06.2020 19:04 24,1 C 24,4 C 21,7 C 45 % 1013,3 hPa 0,0 l/m 2 min 0 min 437 W/m 29,0 km/h (5 Bft) 93,33 %
28.06.2020 19:06 24,1 C 24,4 C 21,7 C 45 % 1013,2 hPa 0,0 l/m 2 min 0 min 445 W/m 16,1 km/h (3 Bft) 93,62 %
28.06.2020 19:08 24,1 C 24,4 C 21,7 C 46 % 1013,2 hPa 0,0 l/m 2 min 0 min 424 W/m 22,5 km/h (4 Bft) 93,62 %
28.06.2020 19:10 24,1 C 24,4 C 21,7 C 46 % 1013,2 hPa 0,0 l/m 2 min 0 min 404 W/m 16,1 km/h (3 Bft) 93,62 %
28.06.2020 19:12 24,1 C 23,9 C 21,7 C 45 % 1013,2 hPa 0,0 l/m 2 min 0 min 387 W/m 12,9 km/h (3 Bft) 93,62 %
28.06.2020 19:14 24,1 C 23,9 C 21,7 C 46 % 1013,2 hPa 0,0 l/m 2 min 0 min 380 W/m 6,4 km/h (2 Bft) 93,48 %
28.06.2020 19:16 24,1 C 23,3 C 21,7 C 45 % 1013,2 hPa 0,0 l/m 2 min 0 min 374 W/m 12,9 km/h (3 Bft) 95,74 %
28.06.2020 19:18 24,0 C 23,3 C 21,7 C 45 % 1013,2 hPa 0,0 l/m 2 min 0 min 381 W/m 19,3 km/h (3 Bft) 93,62 %
28.06.2020 19:20 23,9 C 23,3 C 21,7 C 46 % 1013,2 hPa 0,0 l/m 2 min 0 min 386 W/m 16,1 km/h (3 Bft) 95,74 %
28.06.2020 19:22 23,8 C 23,3 C 21,7 C 45 % 1013,2 hPa 0,0 l/m 2 min 0 min 384 W/m 16,1 km/h (3 Bft) 95,74 %
28.06.2020 19:24 23,8 C 23,3 C 21,7 C 46 % 1013,2 hPa 0,0 l/m 2 min 0 min 371 W/m 12,9 km/h (3 Bft) 93,62 %
28.06.2020 19:26 23,8 C 23,3 C 21,7 C 46 % 1013,3 hPa 0,0 l/m 2 min 0 min 368 W/m 19,3 km/h (3 Bft) 95,65 %
28.06.2020 19:28 23,7 C 22,8 C 21,1 C 47 % 1013,4 hPa 0,0 l/m 2 min 0 min 256 W/m 16,1 km/h (3 Bft) 100,00 %
28.06.2020 19:30 23,6 C 22,8 C 21,1 C 47 % 1013,4 hPa 0,0 l/m 0 min 0 min 160 W/m 16,1 km/h (3 Bft) 100,00 %
28.06.2020 19:32 23,6 C 22,8 C 21,1 C 47 % 1013,3 hPa 0,0 l/m 2 min 0 min 328 W/m 19,3 km/h (3 Bft) 97,87 %
28.06.2020 19:34 23,5 C 22,2 C 21,1 C 47 % 1013,3 hPa 0,0 l/m 2 min 0 min 296 W/m 6,4 km/h (2 Bft) 97,87 %
28.06.2020 19:36 23,4 C 22,2 C 21,1 C 48 % 1013,3 hPa 0,0 l/m 0 min 0 min 64 W/m 6,4 km/h (2 Bft) 97,87 %
28.06.2020 19:38 23,3 C 21,7 C 21,1 C 48 % 1013,3 hPa 0,0 l/m 0 min 0 min 62 W/m 16,1 km/h (3 Bft) 100,00 %
28.06.2020 19:40 23,2 C 21,1 C 20,6 C 48 % 1013,3 hPa 0,0 l/m 0 min 0 min 66 W/m 3,2 km/h (1 Bft) 97,87 %
28.06.2020 19:42 23,0 C 21,1 C 20,6 C 47 % 1013,2 hPa 0,0 l/m 0 min 0 min 73 W/m 19,3 km/h (3 Bft) 100,00 %
28.06.2020 19:44 22,9 C 21,1 C 20,6 C 48 % 1013,3 hPa 0,0 l/m 0 min 0 min 70 W/m 12,9 km/h (3 Bft) 97,87 %
28.06.2020 19:46 22,8 C 20,6 C 20,6 C 48 % 1013,2 hPa 0,0 l/m 0 min 0 min 57 W/m 9,7 km/h (2 Bft) 100,00 %
28.06.2020 19:48 22,7 C 20,6 C 20,6 C 49 % 1013,2 hPa 0,0 l/m 0 min 0 min 93 W/m 6,4 km/h (2 Bft) 100,00 %
28.06.2020 19:50 22,6 C 20,6 C 20,6 C 50 % 1013,3 hPa 0,0 l/m 2 min 0 min 215 W/m 6,4 km/h (2 Bft) 100,00 %
28.06.2020 19:52 22,5 C 20,6 C 20,6 C 49 % 1013,2 hPa 0,0 l/m 0 min 0 min 98 W/m 6,4 km/h (2 Bft) 100,00 %
28.06.2020 19:54 22,3 C 20,6 C 20,0 C 50 % 1013,1 hPa 0,0 l/m 0 min 0 min 52 W/m 12,9 km/h (3 Bft) 100,00 %
28.06.2020 19:56 22,3 C 20,6 C 20,0 C 50 % 1013,2 hPa 0,0 l/m 0 min 0 min 68 W/m 6,4 km/h (2 Bft) 100,00 %
28.06.2020 19:58 22,2 C 20,6 C 20,0 C 50 % 1013,2 hPa 0,0 l/m 0 min 0 min 71 W/m 3,2 km/h (1 Bft) 100,00 %
28.06.2020 20:00 22,1 C 20,6 C 20,0 C 51 % 1013,2 hPa 0,0 l/m 0 min 0 min 70 W/m 0,0 km/h (0 Bft) 100,00 %
28.06.2020 20:02 22,1 C 21,1 C 20,0 C 51 % 1013,2 hPa 0,0 l/m 0 min 0 min 74 W/m 6,4 km/h (2 Bft) 100,00 %
28.06.2020 20:04 22,1 C 21,1 C 20,0 C 51 % 1013,1 hPa 0,0 l/m 0 min 0 min 78 W/m 6,4 km/h (2 Bft) 97,87 %
28.06.2020 20:06 22,0 C 21,1 C 20,6 C 51 % 1013,2 hPa 0,0 l/m 0 min 0 min 73 W/m 12,9 km/h (3 Bft) 100,00 %
28.06.2020 20:08 21,9 C 20,6 C 20,6 C 51 % 1013,1 hPa 0,0 l/m 0 min 0 min 54 W/m 6,4 km/h (2 Bft) 97,87 %
28.06.2020 20:09 21,9 C 20,6 C 20,0 C 51 % 1013,1 hPa 0,0 l/m 0 min 0 min 38 W/m 12,9 km/h (3 Bft) 100,00 %
28.06.2020 20:12 21,9 C 20,6 C 20,0 C 50 % 1013,2 hPa 0,0 l/m 0 min 0 min 45 W/m 16,1 km/h (3 Bft) 100,00 %
28.06.2020 20:14 21,8 C 20,6 C 20,0 C 51 % 1013,1 hPa 0,0 l/m 0 min 0 min 49 W/m 19,3 km/h (3 Bft) 97,87 %
28.06.2020 20:16 21,8 C 20,6 C 20,0 C 51 % 1013,1 hPa 0,0 l/m 0 min 0 min 56 W/m 3,2 km/h (1 Bft) 97,87 %
28.06.2020 20:18 21,8 C 20,6 C 20,0 C 52 % 1013,1 hPa 0,0 l/m 0 min 0 min 61 W/m 6,4 km/h (2 Bft) 100,00 %
28.06.2020 20:20 21,8 C 20,6 C 20,0 C 52 % 1013,1 hPa 0,0 l/m 0 min 0 min 63 W/m 6,4 km/h (2 Bft) 97,78 %
28.06.2020 20:22 21,7 C 20,6 C 20,0 C 52 % 1013,1 hPa 0,0 l/m 0 min 0 min 65 W/m 6,4 km/h (2 Bft) 100,00 %
28.06.2020 20:24 21,7 C 20,6 C 20,0 C 52 % 1013,1 hPa 0,0 l/m 0 min 0 min 64 W/m 3,2 km/h (1 Bft) 100,00 %
28.06.2020 20:26 21,7 C 20,6 C 20,0 C 53 % 1013,1 hPa 0,0 l/m 0 min 0 min 63 W/m 6,4 km/h (2 Bft) 100,00 %
28.06.2020 20:28 21,6 C 20,6 C 20,0 C 52 % 1013,1 hPa 0,0 l/m 0 min 0 min 66 W/m 6,4 km/h (2 Bft) 100,00 %
28.06.2020 20:30 21,6 C 20,6 C 20,0 C 53 % 1013,1 hPa 0,0 l/m 0 min 0 min 68 W/m 3,2 km/h (1 Bft) 100,00 %
28.06.2020 20:32 21,6 C 20,6 C 20,0 C 53 % 1013,0 hPa 0,0 l/m 0 min 0 min 66 W/m 9,7 km/h (2 Bft) 100,00 %
28.06.2020 20:34 21,6 C 20,6 C 20,0 C 53 % 1013,1 hPa 0,0 l/m 0 min 0 min 57 W/m 12,9 km/h (3 Bft) 100,00 %
28.06.2020 20:36 21,6 C 20,6 C 20,0 C 53 % 1013,2 hPa 0,0 l/m 0 min 0 min 47 W/m 19,3 km/h (3 Bft) 100,00 %
28.06.2020 20:38 21,6 C 20,6 C 20,0 C 53 % 1013,1 hPa 0,0 l/m 0 min 0 min 40 W/m 6,4 km/h (2 Bft) 100,00 %
28.06.2020 20:40 21,5 C 20,0 C 20,0 C 54 % 1013,2 hPa 0,0 l/m 0 min 0 min 34 W/m 12,9 km/h (3 Bft) 100,00 %
28.06.2020 20:42 21,5 C 20,0 C 20,0 C 53 % 1013,1 hPa 0,0 l/m 0 min 0 min 30 W/m 12,9 km/h (3 Bft) 100,00 %
28.06.2020 20:44 21,4 C 20,0 C 20,0 C 53 % 1013,1 hPa 0,0 l/m 0 min 0 min 28 W/m 6,4 km/h (2 Bft) 100,00 %
28.06.2020 20:46 21,4 C 20,0 C 20,0 C 54 % 1013,1 hPa 0,0 l/m 0 min 0 min 27 W/m 12,9 km/h (3 Bft) 100,00 %
28.06.2020 20:48 21,4 C 20,0 C 20,0 C 54 % 1013,0 hPa 0,0 l/m 0 min 0 min 26 W/m 3,2 km/h (1 Bft) 100,00 %
28.06.2020 20:50 21,3 C 20,0 C 19,4 C 54 % 1013,0 hPa 0,0 l/m 0 min 0 min 23 W/m 6,4 km/h (2 Bft) 100,00 %
28.06.2020 20:52 21,3 C 20,0 C 19,4 C 54 % 1013,1 hPa 0,0 l/m 0 min 0 min 25 W/m 12,9 km/h (3 Bft) 97,87 %
28.06.2020 20:54 21,3 C 20,0 C 19,4 C 54 % 1013,1 hPa 0,0 l/m 0 min 0 min 25 W/m 6,4 km/h (2 Bft) 100,00 %
28.06.2020 20:56 21,2 C 19,4 C 19,4 C 54 % 1013,1 hPa 0,0 l/m 0 min 0 min 23 W/m 9,7 km/h (2 Bft) 100,00 %
28.06.2020 20:58 21,2 C 19,4 C 19,4 C 54 % 1013,2 hPa 0,0 l/m 0 min 0 min 23 W/m 6,4 km/h (2 Bft) 100,00 %
28.06.2020 21:00 21,2 C 19,4 C 19,4 C 54 % 1013,1 hPa 0,0 l/m 0 min 0 min 20 W/m 3,2 km/h (1 Bft) 100,00 %
28.06.2020 21:02 21,1 C 19,4 C 19,4 C 55 % 1013,1 hPa 0,0 l/m 0 min 0 min 19 W/m 0,0 km/h (0 Bft) 100,00 %
28.06.2020 21:04 21,1 C 19,4 C 19,4 C 55 % 1013,1 hPa 0,0 l/m 0 min 0 min 18 W/m 6,4 km/h (2 Bft) 100,00 %
28.06.2020 21:06 21,1 C 19,4 C 19,4 C 54 % 1013,1 hPa 0,0 l/m 0 min 0 min 16 W/m 16,1 km/h (3 Bft) 100,00 %
28.06.2020 21:08 21,0 C 19,4 C 19,4 C 55 % 1013,1 hPa 0,0 l/m 0 min 0 min 15 W/m 3,2 km/h (1 Bft) 100,00 %
28.06.2020 21:10 20,9 C 19,4 C 19,4 C 55 % 1013,1 hPa 0,0 l/m 0 min 0 min 14 W/m 6,4 km/h (2 Bft) 100,00 %
28.06.2020 21:12 20,9 C 19,4 C 19,4 C 55 % 1013,1 hPa 0,0 l/m 0 min 0 min 16 W/m 12,9 km/h (3 Bft) 100,00 %
28.06.2020 21:14 20,8 C 19,4 C 18,9 C 55 % 1013,1 hPa 0,0 l/m 0 min 0 min 15 W/m 12,9 km/h (3 Bft) 97,87 %
28.06.2020 21:16 20,8 C 19,4 C 18,9 C 55 % 1013,1 hPa 0,0 l/m 0 min 0 min 13 W/m 12,9 km/h (3 Bft) 100,00 %
28.06.2020 21:18 20,8 C 19,4 C 18,9 C 56 % 1013,1 hPa 0,0 l/m 0 min 0 min 12 W/m 3,2 km/h (1 Bft) 100,00 %
28.06.2020 21:20 20,8 C 18,9 C 18,9 C 56 % 1013,1 hPa 0,0 l/m 0 min 0 min 12 W/m 6,4 km/h (2 Bft) 97,83 %
28.06.2020 21:22 20,7 C 18,9 C 18,9 C 56 % 1013,1 hPa 0,0 l/m 0 min 0 min 11 W/m 6,4 km/h (2 Bft) 95,83 %
28.06.2020 21:24 20,7 C 18,9 C 18,9 C 56 % 1013,0 hPa 0,0 l/m 0 min 0 min 11 W/m 6,4 km/h (2 Bft) 93,62 %
28.06.2020 21:26 20,6 C 18,9 C 18,9 C 56 % 1013,1 hPa 0,0 l/m 0 min 0 min 11 W/m 6,4 km/h (2 Bft) 97,87 %
28.06.2020 21:28 20,6 C 18,9 C 18,9 C 56 % 1013,1 hPa 0,0 l/m 0 min 0 min 10 W/m 3,2 km/h (1 Bft) 97,87 %
28.06.2020 21:30 20,6 C 18,9 C 18,9 C 56 % 1013,1 hPa 0,0 l/m 0 min 0 min 9 W/m 3,2 km/h (1 Bft) 95,65 %
28.06.2020 21:32 20,5 C 18,9 C 18,9 C 57 % 1013,0 hPa 0,0 l/m 0 min 0 min 9 W/m 3,2 km/h (1 Bft) 95,74 %
28.06.2020 21:34 20,5 C 18,9 C 18,9 C 57 % 1013,0 hPa 0,0 l/m 0 min 0 min 8 W/m 0,0 km/h (0 Bft) 93,62 %
28.06.2020 21:36 20,4 C 18,9 C 18,3 C 57 % 1013,0 hPa 0,0 l/m 0 min 0 min 7 W/m 6,4 km/h (2 Bft) 91,49 %
28.06.2020 21:38 20,4 C 18,3 C 18,3 C 57 % 1013,0 hPa 0,0 l/m 0 min 0 min 7 W/m 3,2 km/h (1 Bft) 95,74 %
28.06.2020 21:40 20,4 C 18,3 C 18,3 C 57 % 1013,0 hPa 0,0 l/m 0 min 0 min 7 W/m 3,2 km/h (1 Bft) 93,62 %
28.06.2020 21:42 20,3 C 18,3 C 18,3 C 57 % 1013,0 hPa 0,0 l/m 0 min 0 min 7 W/m 3,2 km/h (1 Bft) 93,62 %
28.06.2020 21:44 20,3 C 18,3 C 18,3 C 58 % 1013,0 hPa 0,0 l/m 0 min 0 min 5 W/m 0,0 km/h (0 Bft) 93,48 %
28.06.2020 21:46 20,3 C 18,3 C 18,3 C 58 % 1013,0 hPa 0,0 l/m 0 min 0 min 5 W/m 0,0 km/h (0 Bft) 93,62 %
28.06.2020 21:48 20,2 C 18,3 C 18,3 C 58 % 1013,0 hPa 0,0 l/m 0 min 0 min 5 W/m 3,2 km/h (1 Bft) 93,62 %
28.06.2020 21:50 20,2 C 18,3 C 18,3 C 58 % 1013,0 hPa 0,0 l/m 0 min 0 min 4 W/m 0,0 km/h (0 Bft) 93,62 %
28.06.2020 21:52 20,2 C 18,3 C 18,3 C 58 % 1013,0 hPa 0,0 l/m 0 min 0 min 0 W/m 3,2 km/h (1 Bft) 89,36 %
28.06.2020 21:54 20,1 C 18,3 C 17,8 C 58 % 1013,0 hPa 0,0 l/m 0 min 0 min 0 W/m 0,0 km/h (0 Bft) 93,62 %
28.06.2020 21:56 20,1 C 18,3 C 17,8 C 58 % 1013,0 hPa 0,0 l/m 0 min 0 min 0 W/m 3,2 km/h (1 Bft) 93,48 %
28.06.2020 21:58 20,1 C 18,3 C 17,8 C 58 % 1013,0 hPa 0,0 l/m 0 min 0 min 0 W/m 3,2 km/h (1 Bft) 93,62 %
28.06.2020 22:00 20,0 C 18,3 C 17,8 C 58 % 1013,1 hPa 0,0 l/m 0 min 0 min 0 W/m 6,4 km/h (2 Bft) 93,62 %
28.06.2020 22:02 19,9 C 18,3 C 17,8 C 59 % 1013,1 hPa 0,0 l/m 0 min 0 min 0 W/m 3,2 km/h (1 Bft) 93,62 %
28.06.2020 22:04 19,9 C 17,8 C 17,8 C 59 % 1013,0 hPa 0,0 l/m 0 min 0 min 0 W/m 0,0 km/h (0 Bft) 91,49 %
28.06.2020 22:06 19,8 C 17,8 C 17,8 C 59 % 1013,1 hPa 0,0 l/m 0 min 0 min 0 W/m 3,2 km/h (1 Bft) 93,48 %
28.06.2020 22:08 19,8 C 17,8 C 17,8 C 59 % 1013,0 hPa 0,0 l/m 0 min 0 min 0 W/m 6,4 km/h (2 Bft) 94,44 %
28.06.2020 22:10 19,8 C 17,8 C 17,8 C 60 % 1013,0 hPa 0,0 l/m 0 min 0 min 0 W/m 3,2 km/h (1 Bft) 93,62 %
28.06.2020 22:12 19,7 C 17,8 C 17,8 C 60 % 1013,1 hPa 0,0 l/m 0 min 0 min 0 W/m 3,2 km/h (1 Bft) 93,48 %
28.06.2020 22:16 19,7 C 17,8 C 17,8 C 60 % 1013,0 hPa 0,0 l/m 0 min 0 min 0 W/m 3,2 km/h (1 Bft) 96,61 %
28.06.2020 22:18 19,6 C 17,8 C 17,8 C 60 % 1013,1 hPa 0,0 l/m 0 min 0 min 0 W/m 3,2 km/h (1 Bft) 94,29 %
28.06.2020 22:20 19,6 C 17,8 C 17,8 C 60 % 1013,1 hPa 0,0 l/m 0 min 0 min 0 W/m 0,0 km/h (0 Bft) 95,74 %
28.06.2020 22:22 19,5 C 17,8 C 17,8 C 60 % 1013,1 hPa 0,0 l/m 0 min 0 min 0 W/m 0,0 km/h (0 Bft) 94,83 %
28.06.2020 22:24 19,5 C 17,8 C 17,8 C 60 % 1013,1 hPa 0,0 l/m 0 min 0 min 0 W/m 6,4 km/h (2 Bft) 97,87 %
28.06.2020 22:26 19,4 C 17,8 C 17,8 C 60 % 1013,1 hPa 0,0 l/m 0 min 0 min 0 W/m 6,4 km/h (2 Bft) 100,00 %
28.06.2020 22:28 19,4 C 17,8 C 17,8 C 61 % 1013,1 hPa 0,0 l/m 0 min 0 min 0 W/m 0,0 km/h (0 Bft) 97,14 %
28.06.2020 22:30 19,3 C 17,8 C 17,2 C 61 % 1013,1 hPa 0,0 l/m 0 min 0 min 0 W/m 0,0 km/h (0 Bft) 98,15 %
28.06.2020 22:32 19,3 C 17,2 C 17,2 C 61 % 1013,1 hPa 0,0 l/m 0 min 0 min 0 W/m 3,2 km/h (1 Bft) 96,00 %
28.06.2020 22:34 19,3 C 17,2 C 17,2 C 61 % 1013,1 hPa 0,0 l/m 0 min 0 min 0 W/m 0,0 km/h (0 Bft) 97,87 %
28.06.2020 22:36 19,3 C 17,2 C 17,2 C 61 % 1013,1 hPa 0,0 l/m 0 min 0 min 0 W/m 0,0 km/h (0 Bft) 95,65 %
28.06.2020 22:38 19,2 C 17,2 C 16,7 C 62 % 1013,1 hPa 0,0 l/m 0 min 0 min 0 W/m 0,0 km/h (0 Bft) 95,74 %
28.06.2020 22:40 19,2 C 17,2 C 16,7 C 62 % 1013,1 hPa 0,0 l/m 0 min 0 min 0 W/m 0,0 km/h (0 Bft) 97,87 %
28.06.2020 22:42 19,2 C 17,2 C 16,7 C 62 % 1013,1 hPa 0,0 l/m 0 min 0 min 0 W/m 3,2 km/h (1 Bft) 100,00 %
28.06.2020 22:44 19,1 C 17,2 C 16,7 C 62 % 1013,1 hPa 0,0 l/m 0 min 0 min 0 W/m 3,2 km/h (1 Bft) 97,87 %
28.06.2020 22:46 19,1 C 17,2 C 16,7 C 62 % 1013,1 hPa 0,0 l/m 0 min 0 min 0 W/m 0,0 km/h (0 Bft) 100,00 %
28.06.2020 22:48 19,1 C 17,2 C 16,7 C 62 % 1013,2 hPa 0,0 l/m 0 min 0 min 0 W/m 0,0 km/h (0 Bft) 97,83 %
28.06.2020 22:50 19,0 C 17,2 C 17,2 C 62 % 1013,1 hPa 0,0 l/m 0 min 0 min 0 W/m 6,4 km/h (2 Bft) 100,00 %
28.06.2020 22:52 18,9 C 17,2 C 17,2 C 62 % 1013,2 hPa 0,0 l/m 0 min 0 min 0 W/m 3,2 km/h (1 Bft) 100,00 %
28.06.2020 22:54 18,9 C 17,2 C 17,2 C 63 % 1013,3 hPa 0,0 l/m 0 min 0 min 0 W/m 6,4 km/h (2 Bft) 100,00 %
28.06.2020 22:56 18,9 C 17,2 C 17,2 C 63 % 1013,3 hPa 0,0 l/m 0 min 0 min 0 W/m 12,9 km/h (3 Bft) 100,00 %
28.06.2020 22:58 18,8 C 17,2 C 17,2 C 63 % 1013,3 hPa 0,0 l/m 0 min 0 min 0 W/m 6,4 km/h (2 Bft) 97,83 %
28.06.2020 23:00 18,8 C 17,2 C 17,2 C 63 % 1013,3 hPa 0,0 l/m 0 min 0 min 0 W/m 12,9 km/h (3 Bft) 100,00 %
28.06.2020 23:02 18,8 C 17,8 C 17,2 C 63 % 1013,2 hPa 0,0 l/m 0 min 0 min 0 W/m 6,4 km/h (2 Bft) 97,92 %
28.06.2020 23:04 18,7 C 17,8 C 17,2 C 64 % 1013,3 hPa 0,0 l/m 0 min 0 min 0 W/m 12,9 km/h (3 Bft) 100,00 %
28.06.2020 23:06 18,7 C 17,8 C 17,2 C 64 % 1013,3 hPa 0,0 l/m 0 min 0 min 0 W/m 12,9 km/h (3 Bft) 100,00 %
28.06.2020 23:08 18,7 C 17,8 C 17,2 C 64 % 1013,3 hPa 0,0 l/m 0 min 0 min 0 W/m 6,4 km/h (2 Bft) 100,00 %
28.06.2020 23:10 18,7 C 17,8 C 17,2 C 64 % 1013,2 hPa 0,0 l/m 0 min 0 min 0 W/m 12,9 km/h (3 Bft) 100,00 %
28.06.2020 23:12 18,6 C 17,2 C 17,2 C 65 % 1013,2 hPa 0,0 l/m 0 min 0 min 0 W/m 6,4 km/h (2 Bft) 100,00 %
28.06.2020 23:14 18,6 C 17,2 C 17,2 C 65 % 1013,2 hPa 0,0 l/m 0 min 0 min 0 W/m 3,2 km/h (1 Bft) 100,00 %
28.06.2020 23:16 18,6 C 17,2 C 17,2 C 65 % 1013,1 hPa 0,0 l/m 0 min 0 min 0 W/m 6,4 km/h (2 Bft) 100,00 %
28.06.2020 23:18 18,6 C 17,2 C 17,2 C 65 % 1013,1 hPa 0,0 l/m 0 min 0 min 0 W/m 3,2 km/h (1 Bft) 97,87 %
28.06.2020 23:20 18,6 C 17,2 C 17,2 C 65 % 1013,1 hPa 0,0 l/m 0 min 0 min 0 W/m 3,2 km/h (1 Bft) 100,00 %
28.06.2020 23:22 18,6 C 17,2 C 17,2 C 65 % 1013,1 hPa 0,0 l/m 0 min 0 min 0 W/m 3,2 km/h (1 Bft) 97,83 %
28.06.2020 23:24 18,6 C 16,7 C 17,2 C 65 % 1013,1 hPa 0,0 l/m 0 min 0 min 0 W/m 3,2 km/h (1 Bft) 100,00 %
28.06.2020 23:26 18,6 C 16,7 C 17,2 C 65 % 1013,0 hPa 0,0 l/m 0 min 0 min 0 W/m 0,0 km/h (0 Bft) 100,00 %
28.06.2020 23:28 18,5 C 16,7 C 16,7 C 66 % 1013,0 hPa 0,0 l/m 0 min 0 min 0 W/m 3,2 km/h (1 Bft) 100,00 %
28.06.2020 23:30 18,5 C 16,7 C 16,7 C 66 % 1013,1 hPa 0,0 l/m 0 min 0 min 0 W/m 3,2 km/h (1 Bft) 100,00 %
28.06.2020 23:32 18,5 C 16,7 C 16,7 C 66 % 1013,0 hPa 0,0 l/m 0 min 0 min 0 W/m 0,0 km/h (0 Bft) 100,00 %
28.06.2020 23:34 18,5 C 16,7 C 16,7 C 66 % 1013,0 hPa 0,0 l/m 0 min 0 min 0 W/m 0,0 km/h (0 Bft) 97,87 %
28.06.2020 23:36 18,4 C 16,7 C 16,7 C 66 % 1013,1 hPa 0,0 l/m 0 min 0 min 0 W/m 3,2 km/h (1 Bft) 97,87 %
28.06.2020 23:38 18,4 C 16,7 C 16,7 C 66 % 1013,1 hPa 0,0 l/m 0 min 0 min 0 W/m 0,0 km/h (0 Bft) 100,00 %
28.06.2020 23:40 18,4 C 16,1 C 16,7 C 66 % 1013,1 hPa 0,0 l/m 0 min 0 min 0 W/m 0,0 km/h (0 Bft) 100,00 %
28.06.2020 23:42 18,4 C 16,1 C 16,1 C 66 % 1013,0 hPa 0,0 l/m 0 min 0 min 0 W/m 3,2 km/h (1 Bft) 97,87 %
28.06.2020 23:44 18,3 C 16,1 C 16,1 C 67 % 1013,0 hPa 0,0 l/m 0 min 0 min 0 W/m 0,0 km/h (0 Bft) 97,87 %
28.06.2020 23:46 18,3 C 16,1 C 16,1 C 67 % 1013,1 hPa 0,0 l/m 0 min 0 min 0 W/m 0,0 km/h (0 Bft) 100,00 %
28.06.2020 23:48 18,3 C 16,1 C 16,1 C 67 % 1013,0 hPa 0,0 l/m 0 min 0 min 0 W/m 0,0 km/h (0 Bft) 100,00 %
28.06.2020 23:50 18,2 C 16,1 C 16,1 C 67 % 1013,1 hPa 0,0 l/m 0 min 0 min 0 W/m 0,0 km/h (0 Bft) 100,00 %
28.06.2020 23:52 18,2 C 16,1 C 16,1 C 67 % 1013,1 hPa 0,0 l/m 0 min 0 min 0 W/m 0,0 km/h (0 Bft) 100,00 %
28.06.2020 23:54 18,2 C 16,1 C 16,1 C 67 % 1013,1 hPa 0,0 l/m 0 min 0 min 0 W/m 0,0 km/h (0 Bft) 100,00 %
28.06.2020 23:56 18,1 C 16,1 C 16,1 C 67 % 1013,1 hPa 0,0 l/m 0 min 0 min 0 W/m 0,0 km/h (0 Bft) 100,00 %
28.06.2020 23:58 18,1 C 16,1 C 16,1 C 68 % 1013,1 hPa 0,0 l/m 0 min 0 min 0 W/m 3,2 km/h (1 Bft) 97,96 %
_ Min-Zeit 09:28 08:20 09:04 19:04 05:14 - - - - 01:20 21:52
Minimum _ 16,8 C 15,0 C 15,6 C 45 % 1009,7 hPa - - - - 0,0 km/h (0 Bft) 89,36 %
_ Max-Zeit 18:58 17:16 17:50 08:36 12:10 08:18 18:08 00:44 16:06 17:04 00:12
Maximum _ 24,1 C 27,2 C 22,8 C 89 % 1014,4 hPa 0,2 l/m 4 min 2 min 958 W/m 38,6 km/h
SO (5 Bft)
100,00 %
Durchschnitt _ 20,5 C 20,2 C 19,3 C 70 % 1012,4 hPa #0,4 l/m #4:44 h #48 min. 258 W/m 10,9 km/h (2 Bft) 97,48 %
© 2020 W. Hausmann